ECMWFFLT1_850_thetae_000.txt.gz
Theta_e
339 337 336 336 336 335 333 332 331 331 333 333 333 333 332 332 330 327 327 327 325 324 324 324 325 328 331 332 333 333 334 335 337 337 338 338 338 338 337 336 336 335 335 336 335 333 332 333 333 331 331 332 334 334 334 336 338 337 335 336 338 340 341
338 336 335 333 331 332 332 329 329 330 333 333 332 332 332 331 329 327 329 328 326 324 324 324 325 328 331 331 331 332 333 334 335 335 335 336 337 338 338 336 335 335 336 336 334 333 333 334 334 334 333 335 335 334 334 336 338 338 336 335 336 337 337
337 334 333 333 331 331 331 329 328 331 333 332 332 331 331 330 329 329 331 330 327 325 324 324 327 329 330 330 330 331 332 333 334 334 334 334 335 336 336 335 335 335 335 335 334 334 334 334 335 335 335 335 335 335 334 334 335 335 334 333 333 333 333
335 335 333 332 331 330 329 328 329 332 333 331 331 331 331 331 331 332 333 331 328 326 325 326 328 328 328 329 330 330 332 333 333 333 332 332 332 333 333 333 332 333 333 333 333 332 333 333 334 335 335 334 334 334 333 333 333 333 332 332 332 332 331
335 335 333 332 331 329 328 328 330 331 331 330 331 331 331 331 332 334 334 332 329 326 327 328 329 328 327 328 329 329 330 331 331 331 331 330 330 330 331 331 331 332 331 331 331 330 331 331 332 333 334 334 335 334 333 332 331 331 330 330 331 331 332
335 334 333 332 331 329 328 328 330 330 329 330 330 331 332 332 332 334 334 332 329 327 327 329 329 328 327 327 328 328 328 329 329 330 330 330 330 330 330 331 331 331 330 329 329 329 330 330 330 331 332 334 334 334 333 331 331 330 328 328 330 331 333
335 334 334 333 331 330 329 330 331 330 330 331 331 332 332 332 333 334 333 332 331 329 328 329 329 328 328 328 327 327 327 328 328 329 329 329 329 329 329 330 331 330 330 329 330 331 331 332 332 332 332 333 333 333 332 331 331 330 329 328 330 331 333
334 334 334 333 332 331 330 331 331 331 332 332 332 334 333 333 334 334 333 333 333 331 330 329 329 329 328 327 326 326 326 328 330 329 327 327 328 330 330 330 330 329 329 330 331 332 333 332 332 332 332 333 333 333 333 332 332 333 332 329 329 331 333
335 334 334 332 332 332 330 331 332 331 333 333 333 334 333 334 334 333 334 334 333 333 330 329 330 329 329 327 325 325 326 328 330 329 327 327 328 329 329 329 329 328 328 329 330 332 332 331 330 331 332 332 333 333 333 333 333 333 333 332 332 333 335
335 334 333 332 332 333 331 331 332 332 333 333 333 334 333 334 334 334 335 334 333 332 329 329 330 329 329 326 324 325 326 327 328 329 328 327 328 328 327 327 328 328 328 329 330 331 330 329 330 331 332 332 333 334 333 333 333 332 333 334 334 335 335
335 332 333 333 333 332 332 331 333 333 333 333 333 333 333 334 334 335 334 332 330 329 328 329 330 329 328 326 324 325 326 328 328 328 328 327 327 328 327 327 327 328 329 328 328 328 329 329 329 330 330 331 333 335 335 334 334 333 333 334 335 335 334
334 333 332 333 333 332 332 332 333 333 332 332 332 332 333 334 335 336 333 326 325 327 329 329 329 329 327 325 325 325 326 327 327 327 328 328 328 327 327 327 326 326 328 328 327 328 328 328 328 328 328 329 331 333 335 336 335 334 334 334 333 333 333
333 333 332 332 332 333 333 333 333 332 331 331 331 331 333 334 334 334 328 322 323 327 329 329 329 328 326 324 324 325 325 326 327 327 328 328 328 328 327 327 327 326 327 328 328 328 328 328 327 326 327 329 329 331 333 335 335 334 334 333 333 333 333
332 332 331 331 332 333 334 332 331 330 330 330 331 330 330 330 330 328 324 321 322 325 327 328 327 326 325 323 323 324 324 326 328 328 328 328 328 328 328 327 328 327 327 327 327 326 327 328 326 325 327 329 330 331 331 332 334 335 335 335 334 334 333
332 331 330 330 331 333 333 330 330 329 329 330 331 330 328 327 326 325 323 321 321 324 326 327 325 324 324 322 322 323 325 326 327 327 328 328 328 329 329 328 328 327 326 325 326 325 326 327 325 325 327 329 330 330 330 330 334 337 337 337 336 334 333
332 331 330 329 330 331 330 329 329 328 328 330 330 330 327 325 324 324 323 321 321 324 326 325 323 324 323 321 321 323 324 326 326 325 326 327 328 329 328 327 328 326 325 325 326 326 326 325 324 325 327 329 330 330 330 331 334 337 337 336 336 335 333
332 330 330 329 330 330 329 329 329 328 328 329 329 329 327 323 323 324 323 321 321 324 325 324 323 324 323 322 321 322 323 325 325 324 325 326 327 328 327 326 327 327 326 327 327 326 326 324 324 326 328 329 329 331 333 333 333 334 334 334 335 335 333
331 329 330 329 329 330 329 329 329 328 329 330 329 330 328 324 322 323 323 321 320 323 324 324 325 325 324 324 323 322 322 323 324 324 324 325 326 327 326 326 327 328 328 329 328 327 327 325 324 327 328 327 329 332 333 332 331 331 331 332 333 334 334
330 329 330 329 329 330 330 330 329 328 329 330 329 331 329 325 323 322 322 321 322 323 324 324 325 325 324 324 324 322 322 323 323 322 323 324 325 326 326 327 328 328 327 328 328 328 328 326 324 326 328 327 327 329 329 328 328 328 329 331 332 333 333
329 329 330 329 330 330 329 330 329 329 330 329 330 331 329 325 324 323 322 323 324 325 325 324 324 324 324 324 323 322 322 323 322 322 323 325 326 326 326 327 328 328 326 327 328 328 328 326 323 325 328 327 325 325 325 325 326 327 328 331 333 334 334
329 329 329 329 329 329 330 330 330 330 330 329 330 329 327 326 327 327 325 325 326 327 327 327 326 325 325 325 323 322 322 322 322 324 326 328 327 327 326 327 328 328 327 326 326 327 328 326 323 325 329 327 324 324 324 325 326 328 329 330 333 335 336
329 329 329 328 328 329 330 330 329 329 329 329 329 329 329 329 330 330 329 327 327 328 327 327 327 327 326 325 323 321 322 322 323 325 327 328 329 329 328 327 327 327 326 326 325 326 328 327 324 325 328 327 325 324 324 325 326 327 328 328 331 335 337
329 330 330 329 329 330 329 328 327 327 329 330 328 328 330 330 330 332 331 328 327 328 328 328 328 328 326 325 322 321 321 322 322 324 325 327 329 330 328 327 326 326 326 326 325 325 326 327 326 326 326 326 326 325 324 325 325 325 327 328 330 333 336
331 331 330 330 329 328 328 328 328 329 330 329 328 329 330 330 330 332 332 329 327 328 329 329 329 328 326 324 322 320 320 319 320 322 324 326 328 329 327 325 325 325 325 325 325 324 326 327 326 325 325 326 326 326 324 324 325 324 326 329 331 333 335
332 332 330 329 329 328 327 328 329 331 330 328 329 330 329 329 331 331 331 329 328 328 328 328 328 327 325 323 321 321 319 318 319 322 323 324 326 326 325 323 324 324 325 325 325 325 325 327 327 326 326 326 326 326 324 324 324 324 325 327 330 332 333
332 331 329 328 328 328 328 329 329 330 329 328 329 329 328 328 329 329 328 327 327 327 327 327 327 327 325 323 321 320 319 318 320 322 322 323 324 325 324 323 324 325 325 325 325 325 325 326 326 326 326 326 326 326 325 324 323 323 324 325 327 328 330
331 331 329 328 329 329 329 329 329 328 328 328 328 328 327 326 325 324 324 324 324 325 325 325 326 326 324 322 321 319 318 319 320 321 322 322 324 324 324 323 324 325 325 324 325 325 325 325 325 324 324 326 327 326 325 324 323 322 323 324 324 326 327
331 330 328 327 329 329 329 329 328 327 328 328 327 327 326 325 324 323 323 323 323 324 325 325 326 326 323 321 320 319 319 320 320 320 320 322 323 323 323 323 324 324 324 325 325 325 324 323 323 323 323 324 327 327 326 325 324 323 322 322 323 324 325
330 328 327 327 327 328 327 327 327 327 327 327 326 326 326 326 325 324 323 323 323 324 325 324 326 327 324 321 320 320 319 320 320 318 319 322 323 323 322 322 322 323 324 324 324 323 322 322 322 321 321 322 324 326 326 326 325 324 322 323 323 323 323
327 326 327 327 326 327 326 326 326 327 327 327 327 327 326 326 326 324 323 323 324 324 324 325 326 327 325 321 320 320 320 321 320 318 318 321 322 322 321 320 320 321 322 323 323 322 322 323 323 322 320 319 321 322 325 326 325 324 323 324 324 323 323
325 325 326 326 326 326 325 325 326 326 326 328 327 327 327 326 325 325 324 324 323 323 324 324 326 327 325 321 320 321 321 322 320 319 319 320 320 320 319 320 320 320 321 321 322 322 322 323 324 323 322 320 318 318 321 324 325 323 322 323 324 324 323
325 325 325 325 325 324 323 324 326 326 327 328 327 327 327 326 325 324 324 324 324 324 323 323 324 326 324 321 320 321 322 322 320 320 321 320 319 319 320 320 321 321 321 321 322 322 323 324 324 324 323 320 317 316 318 321 323 322 320 320 321 322 323
325 324 324 324 324 323 323 324 325 326 326 327 327 327 326 325 324 324 325 325 325 324 323 323 324 324 322 321 321 321 322 322 321 321 321 320 320 320 320 320 321 321 321 321 322 322 323 323 324 324 324 322 318 316 317 320 321 321 320 319 319 319 321
325 324 324 324 323 323 324 324 325 327 327 326 327 326 324 324 324 324 325 326 325 323 323 323 324 323 322 321 321 321 321 322 322 321 321 321 321 321 320 320 321 321 321 321 322 322 322 322 323 323 324 324 322 319 317 318 319 319 318 318 318 318 318
325 325 324 324 324 324 324 324 325 327 326 326 326 325 323 323 323 324 325 325 324 323 322 322 322 322 321 321 322 321 321 322 322 321 320 321 321 321 321 321 321 321 322 321 322 321 321 321 322 322 323 324 324 323 320 319 318 318 318 318 318 317 317
325 324 324 325 325 324 325 324 324 325 326 326 325 323 323 323 323 323 323 324 323 323 322 322 322 321 321 321 321 321 321 322 322 321 321 321 321 321 321 322 322 321 322 322 322 321 321 321 321 322 323 324 324 324 323 322 321 320 319 319 319 318 317
325 325 324 324 324 325 324 324 324 324 325 325 323 322 323 322 322 322 323 323 323 323 322 322 322 321 321 320 321 321 321 321 321 321 321 321 321 321 321 322 322 322 322 322 322 322 322 321 321 321 322 324 324 325 324 323 323 322 321 321 321 320 319
324 325 324 324 324 325 325 324 323 324 325 324 322 322 322 322 322 322 322 323 323 323 323 323 322 321 321 321 320 321 321 321 321 320 320 321 321 321 321 322 322 322 322 322 322 322 322 322 322 321 321 322 323 324 324 324 323 323 322 321 321 320 319

ECMWFFLT1_850_thetae_003.txt.gz
Theta_e
340 339 338 336 336 337 336 337 336 334 334 332 333 333 332 332 332 331 330 327 326 327 325 325 324 324 324 325 326 328 329 329 330 330 331 332 332 333 335 337 337 337 336 336 336 336 335 335 335 335 335 335 334 334 334 333 333 333 332 332 333 333 333
340 339 337 336 336 337 336 336 334 331 331 332 333 333 332 332 332 331 330 328 329 328 326 324 324 324 326 326 326 329 329 329 330 331 331 331 331 332 333 334 335 335 335 335 335 335 335 335 335 335 335 335 335 335 334 332 332 332 332 333 333 333 333
340 338 337 336 336 335 335 333 330 328 329 331 333 333 332 332 331 331 331 331 332 330 326 325 324 325 326 325 325 327 328 329 329 330 330 330 330 330 331 331 332 331 332 332 332 332 332 333 333 333 333 333 333 333 333 332 332 332 334 334 334 334 334
338 338 337 335 335 332 332 331 327 327 329 331 333 332 331 331 331 332 333 334 333 330 328 326 325 325 325 325 326 327 327 327 328 328 328 329 329 329 329 329 329 330 330 330 330 330 331 330 330 330 331 331 331 331 331 332 332 332 334 334 334 334 334
337 337 335 334 333 331 330 329 327 327 329 331 332 330 331 331 332 333 334 335 333 330 330 328 326 326 326 326 327 326 326 326 326 327 328 328 328 327 328 328 329 329 329 330 330 330 330 330 330 331 331 332 331 331 331 331 332 332 333 334 334 334 334
338 336 335 333 332 331 329 328 328 328 330 331 330 329 331 332 332 334 333 333 333 331 331 329 327 327 327 327 327 325 325 325 325 326 328 328 327 326 327 328 328 329 329 329 329 328 328 329 331 332 332 331 331 331 331 332 332 332 333 333 334 334 334
338 336 334 334 332 330 329 328 329 330 330 330 330 331 332 333 333 334 334 333 332 331 331 330 328 327 328 328 327 325 325 324 324 325 326 327 327 326 327 328 328 328 327 327 327 327 328 330 331 330 330 330 330 330 331 332 332 333 333 333 334 334 334
337 335 334 333 332 331 330 329 330 330 331 331 332 332 333 334 333 334 334 333 331 331 330 329 328 328 329 329 328 326 324 324 324 325 325 326 327 326 327 327 327 326 326 326 326 327 328 329 329 328 328 328 328 329 329 330 331 332 333 334 333 333 333
336 335 334 333 332 331 330 331 331 331 332 332 333 333 333 334 334 333 334 333 331 329 327 326 327 328 329 329 327 325 324 324 324 325 325 326 326 327 327 326 326 326 325 325 326 327 327 328 328 327 326 326 326 327 328 329 330 332 333 334 333 333 333
336 334 335 333 332 332 331 332 332 332 333 333 333 333 332 333 333 333 334 332 330 327 324 324 326 328 329 329 327 325 324 324 324 325 326 326 327 327 327 326 326 326 326 327 327 327 326 327 327 326 325 325 325 327 329 329 330 331 333 334 334 333 333
336 334 334 333 332 333 333 332 332 332 332 333 332 332 331 331 331 331 330 330 328 324 322 323 326 328 328 327 325 324 324 324 324 325 327 327 327 328 327 327 327 327 327 328 326 326 325 325 325 325 325 324 326 328 329 330 331 331 332 333 335 335 333
335 334 334 333 332 333 333 332 333 333 332 332 331 330 329 328 326 326 326 326 325 322 321 322 325 326 326 325 324 323 323 323 325 326 327 327 327 327 328 328 328 328 328 326 325 326 325 324 324 324 324 325 327 329 329 330 331 331 331 332 334 335 334
335 334 332 333 334 333 333 333 333 333 332 331 329 329 328 326 323 323 324 323 322 321 320 321 324 325 324 323 322 322 323 324 325 326 327 326 327 327 328 328 327 327 327 326 325 326 326 324 324 324 324 326 328 328 329 330 330 331 331 332 334 335 335
334 334 332 333 333 333 333 333 333 332 331 329 328 329 329 327 324 323 322 322 321 320 319 321 324 324 323 323 322 321 323 324 325 325 325 326 326 326 327 327 326 326 327 326 326 326 326 325 324 324 325 326 327 328 329 331 332 333 333 334 334 335 335
334 333 333 334 333 332 333 333 332 330 329 329 328 328 329 327 324 322 321 321 320 319 320 323 324 323 323 323 321 321 322 322 323 324 325 325 325 325 326 326 326 326 327 327 327 326 326 326 324 324 326 327 327 326 327 328 330 331 332 332 332 332 333
334 333 333 332 330 331 332 331 330 328 328 329 328 329 329 327 324 321 320 321 320 320 321 323 323 322 323 323 322 322 322 322 322 323 323 323 322 323 325 325 326 327 327 326 326 325 326 326 325 324 326 328 327 325 324 324 325 327 327 328 328 329 329
333 332 332 330 329 330 330 329 328 328 328 329 329 329 329 328 324 320 320 320 319 320 321 322 322 322 323 323 323 323 323 322 322 322 322 322 321 322 324 325 326 327 327 326 325 325 326 327 325 323 326 329 328 326 325 324 324 325 326 327 327 328 329
333 331 331 330 329 329 328 327 328 328 328 329 329 329 329 329 325 321 320 321 320 320 322 322 322 323 323 323 323 323 323 322 322 322 322 323 324 325 326 325 326 327 327 327 326 325 326 327 325 325 327 328 328 327 325 324 324 325 326 327 327 328 329
331 331 331 330 329 328 327 327 328 328 329 328 329 329 329 328 324 320 321 322 320 321 323 324 324 324 323 324 324 325 323 322 322 322 323 325 327 328 328 327 326 327 327 326 326 325 326 326 326 326 327 327 327 327 326 324 324 324 325 328 329 329 329
331 331 331 330 329 328 327 328 328 329 329 329 329 329 329 326 324 322 323 324 323 323 323 325 326 325 325 325 325 325 324 322 322 323 324 325 326 328 329 328 327 327 326 325 326 325 325 326 326 326 327 326 326 326 325 324 324 324 326 328 329 330 331
331 331 331 330 329 328 328 328 329 329 329 329 328 328 327 326 324 324 325 327 327 325 324 325 327 327 327 327 326 325 323 322 321 322 322 323 325 327 329 327 326 326 325 324 325 324 324 325 326 326 326 326 326 326 326 325 323 323 325 327 328 329 331
332 332 331 330 328 328 328 328 328 329 329 328 326 325 326 326 325 325 326 327 327 328 326 326 327 328 328 328 327 325 323 320 320 319 319 322 323 325 327 326 324 324 324 324 324 324 325 325 326 326 326 326 326 326 326 325 324 323 324 325 326 329 331
331 331 330 329 328 328 328 328 328 329 327 326 324 325 326 327 326 326 327 326 326 328 328 327 327 328 328 328 327 324 321 320 319 318 319 321 323 324 325 324 323 324 324 324 324 325 325 325 326 326 326 326 326 326 326 325 324 322 323 324 325 327 330
330 330 329 328 328 328 328 329 329 327 326 325 325 326 327 328 327 326 326 325 325 328 329 328 328 328 328 328 326 323 321 320 319 318 320 322 322 323 324 324 323 324 324 324 324 325 325 325 324 324 324 324 326 327 326 325 324 322 322 323 324 326 328
329 329 329 328 329 329 328 329 327 327 327 326 326 327 328 328 328 326 325 325 325 326 327 327 327 327 326 325 325 324 322 319 319 319 320 321 322 323 324 324 323 324 325 324 324 325 325 324 323 322 322 323 325 327 326 325 324 323 321 322 324 325 325
329 329 329 330 330 329 327 328 327 327 327 327 327 328 328 328 327 326 325 325 324 324 324 324 326 326 324 323 323 324 321 319 319 320 320 320 322 323 324 323 323 323 324 324 324 325 324 322 322 322 321 321 323 326 325 323 322 323 323 323 322 324 325
330 330 330 331 330 328 328 328 327 327 327 327 328 328 328 328 326 326 325 324 324 323 323 323 325 325 323 323 322 322 320 319 320 320 319 319 321 323 323 323 322 322 322 323 324 324 323 322 323 323 322 320 321 325 326 323 321 322 324 323 323 323 324
331 331 332 332 330 329 328 328 327 328 328 328 328 328 327 327 326 325 325 324 324 324 323 324 325 324 323 324 324 323 322 320 320 320 319 318 320 322 322 321 320 320 321 322 323 322 322 322 323 324 323 320 319 323 326 324 323 323 323 323 323 323 322
331 331 332 332 330 330 329 328 327 328 328 328 328 327 327 326 326 326 325 325 324 324 323 324 325 324 324 325 326 325 322 320 320 321 320 318 319 321 320 320 320 320 320 321 321 321 322 322 323 323 324 321 318 320 325 326 325 324 324 322 322 323 324
328 328 330 331 331 330 328 327 327 327 328 327 327 327 326 326 326 326 325 325 324 323 324 324 324 324 325 326 326 324 321 321 322 321 320 319 320 320 319 320 320 320 320 321 321 321 322 323 323 323 324 323 319 318 322 325 325 324 324 323 321 321 323
327 327 328 328 329 328 327 327 327 327 326 326 326 326 326 326 326 327 326 325 324 324 325 325 324 324 324 324 326 324 321 321 322 321 320 320 320 320 320 320 320 321 321 321 321 321 322 322 323 323 323 325 322 318 318 322 323 321 322 323 322 321 321
327 327 327 326 327 326 326 326 326 326 325 325 325 326 327 326 327 327 325 324 323 324 325 325 324 324 323 323 324 322 321 321 322 321 321 321 321 321 320 320 320 321 321 321 321 321 321 321 322 322 323 324 324 322 319 319 320 319 319 319 320 321 322
326 326 326 326 326 325 325 326 326 325 324 323 324 326 327 327 327 326 325 324 323 324 324 324 323 323 323 324 323 322 321 321 322 321 321 321 321 321 321 321 321 322 321 322 322 322 321 321 321 322 322 323 324 324 321 319 319 319 319 319 318 319 321
326 326 325 326 325 325 325 325 325 324 323 324 325 326 326 327 326 325 324 324 324 324 323 323 323 323 323 324 323 321 321 321 321 321 321 321 321 321 321 321 322 322 322 322 322 322 322 321 321 321 322 322 324 324 323 321 320 319 319 320 320 319 319
325 325 325 326 324 324 324 323 323 323 323 325 326 326 326 326 325 323 323 324 324 324 324 323 322 322 323 323 322 321 321 321 321 321 321 321 321 321 321 321 321 321 322 322 322 322 322 322 321 321 321 322 323 323 324 323 322 320 320 320 321 320 319
325 325 325 324 323 323 323 323 323 324 324 325 326 326 326 325 323 323 323 323 323 323 323 323 322 321 322 322 321 321 321 321 321 321 321 321 320 320 321 321 321 321 321 322 322 322 322 322 322 321 321 320 320 322 323 324 323 322 321 321 321 321 320
326 325 324 324 323 323 323 323 324 324 323 325 326 326 325 324 323 323 322 322 322 322 322 322 322 322 322 322 321 321 321 320 321 321 321 321 321 321 321 321 321 321 321 322 322 322 322 322 322 321 321 321 320 320 322 323 324 323 322 322 322 321 320
325 324 323 323 323 323 323 323 323 323 323 324 325 325 325 324 323 322 322 322 322 322 322 323 323 322 322 322 321 321 320 320 321 321 321 321 321 321 321 321 321 321 321 322 322 322 323 322 321 321 321 321 321 321 320 321 323 324 323 322 322 321 321

ECMWFFLT1_850_thetae_006.txt.gz
Theta_e
346 346 344 339 338 337 336 337 336 336 336 334 334 333 332 333 332 333 332 331 330 329 327 328 327 326 324 323 323 322 322 322 323 324 326 327 327 328 328 329 329 330 331 332 333 334 334 334 334 335 335 336 336 336 336 336 337 337 336 336 336 337 336
346 345 343 339 338 338 336 336 336 336 335 332 332 331 332 333 333 333 331 330 330 329 329 330 329 327 325 324 323 323 323 324 325 325 326 325 325 326 327 328 328 328 329 329 330 331 331 331 332 332 333 333 334 334 334 334 335 335 335 335 335 335 334
346 344 342 339 338 337 335 336 336 335 333 330 329 329 331 332 332 331 331 330 330 330 331 331 329 327 326 324 324 324 325 325 326 325 324 324 324 325 326 326 326 327 328 329 329 329 330 330 330 330 330 330 330 331 331 331 332 331 332 332 332 332 332
345 344 340 338 338 336 335 336 335 334 330 328 328 329 330 331 331 330 331 331 331 331 332 331 329 328 326 325 324 325 326 326 325 324 324 324 324 325 326 326 326 326 328 329 329 329 329 329 329 329 329 329 329 329 329 330 329 329 330 330 330 330 330
344 343 340 339 339 336 335 335 334 331 327 327 328 328 329 330 330 331 331 332 332 332 332 331 329 327 325 324 324 325 326 326 324 324 323 323 324 325 326 326 326 327 327 327 328 328 328 328 328 328 329 329 329 329 330 330 330 330 330 330 331 331 330
344 342 340 339 338 335 335 334 332 329 326 328 329 328 330 329 330 332 332 332 333 332 332 331 329 327 325 325 325 325 326 326 324 324 323 324 324 325 326 326 326 326 326 326 326 327 327 327 328 328 329 329 329 329 329 329 329 329 329 329 330 330 331
343 341 338 339 337 335 334 332 330 328 327 329 329 329 330 330 331 333 333 333 333 332 333 331 328 325 324 325 325 326 326 326 324 323 323 324 325 325 325 326 326 326 326 326 326 326 326 327 327 328 327 327 326 325 325 326 327 327 328 328 328 329 330
342 340 338 338 337 335 333 331 328 328 328 329 330 330 331 331 332 332 333 333 333 333 333 331 326 323 323 324 325 326 326 325 324 323 323 324 325 326 326 327 327 326 326 326 326 326 326 326 326 326 326 325 325 324 324 326 327 328 328 329 330 330 330
340 339 338 337 337 335 332 330 328 328 330 330 330 332 331 332 332 331 332 333 333 333 332 329 324 321 322 324 325 326 325 324 324 323 324 326 326 326 326 327 327 327 327 327 327 327 326 325 325 324 324 324 324 324 325 327 327 327 328 330 330 331 331
339 337 339 337 336 335 332 330 329 329 331 331 331 332 332 332 331 329 330 331 332 332 329 326 322 321 322 324 325 326 324 323 323 323 324 326 327 326 326 327 327 328 327 327 327 326 325 325 325 324 323 323 323 325 326 327 327 327 330 331 332 332 332
338 337 338 337 334 334 332 330 330 330 331 332 331 332 331 330 328 326 327 327 328 328 325 323 321 320 322 324 324 324 323 322 323 323 324 325 326 326 326 327 326 326 326 326 327 326 325 326 325 324 323 323 324 326 327 327 325 325 328 330 330 331 332
338 338 338 337 335 333 332 330 330 331 332 332 332 331 330 328 326 324 324 323 324 324 323 321 320 320 323 324 323 323 322 322 323 323 324 324 325 325 325 325 325 325 325 326 326 326 325 326 325 324 324 323 325 327 327 326 325 324 325 325 326 327 329
338 338 337 336 335 333 332 331 331 332 332 332 331 330 328 327 326 325 324 322 322 322 322 320 320 321 323 323 323 322 322 321 322 323 323 323 323 323 323 322 323 325 326 326 327 326 326 326 325 325 324 324 326 327 327 327 325 324 325 325 325 325 326
337 337 336 335 334 333 332 331 332 332 332 332 330 328 327 326 326 326 324 322 321 321 321 320 320 322 323 322 322 322 321 321 322 322 322 322 322 322 321 321 322 324 326 326 326 326 325 325 325 326 325 325 326 327 327 327 325 325 325 324 325 326 327
336 336 336 335 333 332 332 331 332 332 332 330 329 327 326 325 326 326 324 321 320 320 320 320 320 322 322 321 322 322 322 322 322 322 322 322 322 322 321 321 323 325 326 327 326 326 325 325 326 326 326 326 326 326 326 327 326 325 325 324 324 326 327
336 336 335 335 333 331 331 331 332 332 331 330 328 327 325 325 327 327 324 321 320 320 320 320 320 321 321 321 322 323 322 322 323 322 322 322 322 323 324 324 325 326 326 327 327 327 326 325 325 326 326 326 326 326 326 326 326 325 324 323 324 324 326
335 335 335 334 332 331 331 331 332 332 331 329 327 327 326 327 327 325 323 321 320 320 320 320 320 320 321 321 321 322 323 324 323 323 322 322 323 325 326 326 327 327 326 327 327 326 326 325 325 325 326 326 326 326 326 326 326 325 324 323 323 324 325
335 335 334 332 332 332 330 330 331 330 329 327 326 327 327 327 327 324 322 320 320 321 321 320 321 321 322 322 322 323 324 324 324 322 321 322 323 324 325 325 327 327 327 327 326 325 325 325 324 325 326 326 326 326 326 326 326 325 323 323 323 324 326
334 333 332 331 331 332 330 329 329 328 327 326 326 327 327 326 324 323 322 321 322 323 323 323 322 322 323 324 325 325 326 325 325 323 322 322 322 322 323 323 325 326 326 326 325 324 324 324 324 325 325 326 326 325 325 326 326 325 323 322 323 324 325
332 331 332 331 331 330 329 329 328 327 327 326 326 327 327 324 323 323 323 322 323 324 324 325 325 324 324 325 326 327 327 326 326 323 321 320 319 319 320 321 323 324 325 324 324 324 325 324 325 325 325 326 325 324 325 326 325 324 322 322 323 324 325
332 332 332 332 331 331 329 328 327 327 326 325 326 327 325 322 323 324 323 322 323 324 323 325 326 326 326 326 326 327 328 327 326 322 320 319 318 319 320 321 322 323 324 323 323 324 324 324 325 324 324 324 323 323 325 326 325 324 322 322 322 323 324
332 332 332 332 331 330 330 328 327 327 326 325 327 326 324 322 324 324 324 324 324 323 323 324 326 327 327 327 327 328 328 326 324 321 320 319 318 319 321 321 322 323 324 323 324 324 324 324 325 323 322 322 322 323 325 324 323 323 323 323 322 323 324
332 331 331 331 330 331 330 328 328 327 326 326 328 326 324 324 325 325 325 325 324 324 324 324 325 328 329 328 327 328 327 325 323 321 319 319 319 320 320 320 322 323 324 323 324 324 324 324 324 323 322 323 321 322 325 323 321 323 324 323 322 322 323
332 332 331 331 331 331 330 328 328 328 327 327 328 326 324 326 327 326 326 326 325 325 325 324 324 327 329 328 327 326 325 324 323 321 319 319 319 319 320 321 323 323 323 323 323 323 324 324 323 322 323 323 320 321 324 324 322 323 323 323 323 323 322
331 331 331 331 331 330 329 328 328 327 328 327 327 325 325 327 327 327 327 326 325 325 325 325 324 325 326 327 327 325 322 323 323 320 319 319 319 319 319 322 323 323 322 322 321 322 324 323 322 322 323 323 321 320 324 325 323 323 322 321 322 324 323
331 331 330 330 330 329 329 328 328 328 328 327 327 326 326 328 328 328 327 326 325 325 325 324 323 323 324 325 326 324 322 321 321 320 319 320 320 319 319 321 322 321 320 320 319 321 322 322 322 322 323 323 321 319 322 325 325 325 324 321 320 322 324
330 331 329 329 329 329 329 329 329 329 328 327 327 326 327 328 328 328 327 326 325 325 325 324 323 323 323 324 324 323 322 322 323 322 321 320 320 319 318 320 321 320 319 319 320 320 321 321 322 322 323 323 321 317 320 325 326 326 326 325 321 320 320
331 330 329 330 330 330 331 331 330 329 328 328 327 327 328 329 328 328 328 326 326 325 325 324 323 323 324 324 323 323 323 325 326 323 321 321 321 320 319 319 320 319 319 320 320 320 321 321 322 322 322 323 322 318 318 324 326 326 326 326 324 322 320
330 330 330 330 329 329 331 330 330 330 329 328 327 327 328 328 328 328 327 327 326 325 325 324 323 323 324 324 324 324 324 326 325 322 321 321 321 320 320 319 319 320 320 320 320 320 321 320 321 322 322 322 323 320 317 320 324 324 323 322 323 323 322
329 329 329 328 328 329 330 329 329 330 329 328 327 327 328 329 328 327 327 327 326 325 325 324 324 324 324 324 324 324 325 326 325 322 321 321 320 320 320 320 319 320 320 321 320 321 321 320 320 321 321 321 323 323 319 318 320 321 320 319 319 320 321
327 328 328 327 328 329 329 329 330 330 329 329 328 328 328 328 327 327 327 326 326 326 325 324 324 325 324 324 324 324 324 325 324 321 321 321 320 321 320 320 320 320 320 320 321 321 321 321 321 320 321 321 322 323 322 319 318 319 319 319 319 318 319
327 327 327 327 327 328 328 329 330 330 330 329 327 328 328 327 326 327 326 326 326 326 325 324 323 324 324 324 323 323 324 325 323 321 321 321 321 321 321 321 321 321 321 321 321 321 321 322 321 321 321 321 321 323 323 322 321 320 319 319 320 320 319
325 325 326 326 326 327 328 328 329 330 330 328 327 327 326 324 325 326 326 326 327 326 325 324 323 324 323 323 323 322 324 324 323 321 321 321 321 321 321 321 321 321 321 321 321 321 322 322 322 321 321 321 321 321 322 323 322 322 321 320 321 320 319
324 324 325 326 326 326 327 327 328 329 328 327 327 325 323 323 324 324 325 326 326 326 325 324 324 324 323 323 322 322 324 324 322 321 321 321 321 321 320 321 321 321 321 321 321 322 322 322 322 322 321 321 321 320 321 323 323 323 322 321 321 321 320
324 324 324 325 325 326 326 327 327 327 327 326 325 323 323 323 324 324 326 326 325 325 324 324 324 323 323 322 322 323 324 323 322 321 321 321 321 321 321 321 321 321 321 321 321 322 322 322 322 322 321 321 321 320 320 322 323 323 323 322 321 321 320
323 324 325 325 325 325 325 325 326 326 325 324 323 323 323 324 324 325 326 325 324 323 323 323 323 323 322 322 323 324 324 323 322 321 321 321 321 321 321 321 321 321 321 321 322 322 322 322 322 322 321 320 320 320 320 321 322 323 323 322 322 321 321
323 324 324 324 325 325 324 324 324 324 324 323 323 323 324 325 325 326 325 324 324 323 323 323 322 322 322 322 323 324 324 323 323 322 321 321 321 321 321 321 321 321 321 321 322 322 322 322 322 321 320 320 320 320 320 320 321 322 323 322 322 321 321
323 324 324 324 325 324 324 323 323 323 322 322 322 323 324 326 326 326 325 324 323 323 323 322 321 321 322 322 322 323 323 322 322 322 321 321 321 321 321 321 321 322 322 322 321 322 322 322 321 321 320 320 320 320 320 320 320 321 322 323 322 322 322

ECMWFFLT1_850_thetae_009.txt.gz
Theta_e
348 347 346 348 347 338 331 332 332 332 333 335 336 336 334 333 330 330 331 332 332 331 330 330 330 328 327 326 325 322 322 323 324 324 324 325 324 324 324 324 324 326 326 326 326 327 327 328 328 329 329 330 331 331 331 331 332 333 333 334 334 335 335
348 346 347 349 347 339 334 335 334 334 335 335 336 335 332 329 328 330 332 332 331 330 330 330 329 328 328 326 324 323 322 324 325 325 325 324 324 323 323 323 324 326 326 326 327 327 327 327 328 328 328 328 329 329 329 329 330 331 331 332 332 332 333
348 345 346 348 347 341 336 336 336 336 336 336 335 331 328 327 328 331 332 331 331 330 331 331 329 329 328 326 324 323 324 325 326 325 325 324 323 323 322 323 324 325 325 326 326 326 326 326 326 326 326 326 326 327 329 330 330 330 330 331 331 331 331
347 345 345 346 346 342 338 337 336 336 336 335 332 328 326 327 329 330 330 330 330 331 331 330 329 328 328 325 324 323 324 325 326 326 325 324 323 322 323 323 324 324 325 325 326 325 325 325 324 324 324 325 325 326 328 329 330 329 330 330 329 330 330
347 346 345 345 346 343 339 338 336 336 336 333 329 326 326 328 329 329 329 329 331 332 331 329 328 329 328 325 323 323 325 325 326 326 324 323 323 323 324 325 325 325 325 325 325 325 325 324 324 323 324 325 326 326 327 327 327 327 327 328 328 329 329
347 346 345 345 345 342 339 337 336 335 335 330 326 326 328 329 329 329 329 331 332 332 330 328 328 328 327 324 321 322 325 326 325 325 324 323 323 324 325 326 326 326 326 325 325 325 325 325 325 325 325 326 326 326 326 326 326 327 327 329 329 329 330
347 347 345 345 345 342 339 337 336 335 332 328 326 327 328 329 329 330 330 331 331 331 329 328 328 328 326 323 320 321 324 325 325 324 323 323 323 325 326 326 326 326 326 326 326 326 326 326 326 325 325 325 325 325 325 326 327 328 328 328 328 329 330
347 347 346 346 345 342 339 337 336 335 330 327 327 328 328 329 330 331 331 331 330 328 326 326 327 327 324 321 319 321 323 324 324 323 322 323 323 325 326 326 326 326 326 326 326 326 326 326 326 325 325 325 324 324 325 326 327 327 327 327 327 328 329
347 347 346 346 345 342 339 336 335 333 329 327 327 328 329 330 330 331 331 329 326 324 324 325 325 324 322 320 320 322 323 324 324 323 322 322 323 324 325 325 325 325 325 325 325 325 326 326 326 325 325 325 324 324 325 325 326 327 326 326 326 327 327
346 346 346 346 345 342 338 336 335 332 328 327 327 329 330 330 331 331 328 325 323 322 323 323 322 322 321 320 320 322 323 323 323 322 322 322 323 324 324 324 324 323 323 324 325 325 325 326 326 326 326 325 325 325 325 325 326 326 326 326 326 327 326
344 344 345 345 344 342 338 336 334 331 328 327 328 329 330 331 331 328 325 323 322 322 322 322 321 321 320 319 320 322 323 323 323 322 322 322 323 323 323 323 322 321 321 323 325 326 326 326 326 326 325 325 325 325 325 326 326 326 325 326 326 326 325
342 343 344 344 343 341 338 336 334 331 328 328 329 329 330 330 328 325 323 324 323 322 321 321 320 320 320 319 321 322 323 322 322 321 321 322 322 322 322 322 322 321 321 323 325 326 326 326 325 325 325 325 326 326 326 326 326 326 326 326 327 327 325
340 341 342 343 342 339 337 336 334 331 329 329 329 330 330 328 324 323 325 325 324 322 321 320 320 320 319 320 321 322 322 322 321 321 322 322 322 322 322 322 322 321 322 323 325 326 326 326 326 325 324 325 326 326 326 326 325 326 326 326 326 326 325
339 339 340 341 340 338 337 336 334 331 330 329 330 330 328 325 323 324 326 326 325 323 321 320 320 320 320 320 321 321 322 322 322 322 322 322 322 322 322 322 322 323 324 325 326 326 326 327 326 326 325 325 325 325 326 326 326 325 326 326 325 325 324
338 338 338 339 338 338 337 337 334 331 330 329 330 329 325 322 323 325 326 326 324 322 320 320 320 320 319 320 320 321 321 323 322 322 323 323 323 322 322 322 323 323 324 325 326 326 327 327 326 325 325 325 325 325 326 326 326 325 326 326 324 323 324
338 337 338 338 338 338 338 337 335 332 330 329 329 327 323 322 324 326 327 326 324 321 320 320 320 320 320 320 321 321 322 323 323 323 324 324 322 321 322 322 323 323 323 325 326 326 326 326 326 325 325 325 325 325 326 326 326 325 326 325 324 323 323
338 337 338 338 338 338 337 336 334 331 330 330 328 325 322 324 326 326 327 326 323 320 320 320 321 321 321 321 321 322 322 322 323 324 325 325 323 322 321 321 321 321 321 322 324 324 325 325 325 325 324 325 325 325 325 326 326 326 326 325 323 322 323
337 337 337 338 338 338 337 336 333 330 330 329 327 324 323 326 327 326 325 324 322 320 320 321 322 323 322 322 323 323 324 324 325 326 326 326 324 321 320 319 319 319 320 321 322 323 324 324 324 324 325 325 325 324 323 324 325 326 325 324 323 322 322
336 336 337 338 337 337 336 335 332 330 329 328 325 324 324 326 327 325 324 323 321 321 321 322 323 323 323 324 324 325 326 326 327 327 327 326 324 321 319 318 318 320 321 321 322 323 323 323 324 324 324 325 324 323 322 322 324 326 324 322 323 323 322
335 335 337 337 336 335 335 334 331 330 329 327 325 325 325 326 327 325 323 323 322 322 322 323 323 324 325 325 326 326 326 327 327 327 327 325 322 320 319 319 319 320 321 321 322 323 323 324 324 324 325 324 323 323 322 321 323 325 323 321 322 323 322
334 335 335 336 335 334 333 332 331 330 328 327 326 326 327 327 326 325 324 323 323 323 323 323 323 324 326 327 328 327 327 327 327 327 326 323 321 320 319 319 319 320 320 321 323 323 323 323 324 324 324 324 323 323 322 321 322 324 322 320 321 323 324
334 334 335 335 333 332 332 331 331 330 328 327 326 326 326 327 326 325 324 324 324 323 324 324 323 324 325 328 329 329 328 327 328 327 326 323 321 320 319 318 319 320 322 323 323 323 323 323 323 323 324 323 322 323 322 321 322 324 322 321 320 321 323
333 335 334 334 332 331 331 331 330 329 328 327 326 326 326 326 327 325 324 324 325 324 324 324 324 324 325 327 329 330 329 328 327 325 323 322 320 320 320 319 319 320 322 323 322 321 321 320 320 322 322 322 322 323 322 320 322 324 324 323 322 322 321
333 334 334 332 331 331 331 330 331 329 328 327 327 326 327 327 327 326 325 325 325 325 324 324 325 324 325 326 329 330 330 329 325 322 321 320 320 320 320 320 319 319 321 321 320 319 319 319 319 320 321 321 322 323 323 320 320 323 325 324 325 325 323
332 332 332 332 332 331 331 330 330 329 328 328 327 327 327 328 328 327 325 325 326 325 325 325 325 325 325 326 326 327 328 327 324 321 320 320 320 320 320 320 320 319 320 320 320 319 319 319 320 320 321 322 322 323 324 321 319 322 326 325 324 326 326
332 332 332 332 331 330 330 331 330 329 328 328 328 328 327 328 328 327 325 325 326 326 325 325 325 325 325 324 324 323 324 325 324 321 321 322 322 321 321 321 320 319 320 320 319 320 320 319 320 320 320 321 322 322 323 322 319 321 326 325 323 323 323
332 332 332 331 331 330 330 330 329 329 329 328 329 328 328 328 329 327 326 326 326 327 326 325 326 325 324 323 323 323 324 324 323 322 323 324 323 322 321 321 320 319 319 319 320 320 320 320 320 320 320 321 321 321 323 322 320 320 322 322 320 319 320
332 332 331 331 331 330 329 329 330 329 329 329 329 328 328 328 328 328 326 326 327 327 327 327 326 325 324 324 324 323 323 324 323 322 324 325 324 321 321 321 320 320 320 320 320 320 320 320 321 321 320 320 320 321 322 323 321 319 319 319 319 318 319
332 331 330 330 330 330 330 330 330 330 330 330 330 329 329 328 328 328 328 326 327 328 328 328 327 325 325 325 324 323 323 324 324 323 325 326 324 321 321 321 320 320 320 320 320 320 320 321 321 321 321 321 320 320 322 323 322 320 319 319 319 319 320
330 330 330 330 330 330 330 329 330 330 330 330 330 330 330 329 328 328 327 327 328 328 328 329 327 326 325 325 324 323 323 324 324 325 326 326 323 321 321 321 320 320 320 320 320 321 321 321 321 321 322 321 321 320 321 322 323 322 321 320 320 320 320
330 330 330 329 330 330 330 330 330 330 330 330 330 330 330 329 328 328 327 328 328 329 328 328 326 326 326 325 324 323 324 325 324 324 326 326 323 321 321 321 321 321 320 321 321 321 321 321 321 321 321 322 321 321 320 321 322 323 323 322 321 321 321
328 328 328 328 329 328 329 329 329 329 329 330 330 331 331 330 328 327 328 328 328 328 328 327 326 326 326 325 324 323 323 324 323 323 325 325 322 321 321 321 321 320 321 321 321 321 321 321 321 321 321 322 322 321 321 320 321 323 323 323 322 322 321
326 326 326 326 326 326 327 327 327 328 328 329 328 330 331 330 328 328 328 328 327 327 326 326 326 326 326 325 325 324 324 324 323 323 325 324 322 321 321 321 321 321 321 321 321 321 321 321 321 321 321 321 322 322 321 320 321 322 323 323 323 322 322
324 324 324 324 324 324 325 325 325 325 326 327 328 329 330 329 328 328 327 326 325 325 325 326 326 326 325 325 324 324 323 323 322 324 325 323 321 321 321 321 321 321 321 321 321 321 321 321 321 321 322 322 322 321 321 320 320 321 322 323 323 323 322
323 323 323 323 323 323 323 324 325 325 325 326 327 328 328 328 327 327 326 324 323 324 325 326 326 326 325 325 324 324 323 322 323 325 324 322 320 320 321 321 321 321 321 321 321 321 321 322 322 322 322 322 321 321 320 320 320 320 321 322 324 323 322
322 322 322 322 322 322 324 324 325 325 325 325 326 327 327 327 326 325 324 323 323 324 325 325 325 325 324 324 323 323 322 322 324 325 322 320 321 321 321 321 321 321 321 321 321 321 322 322 321 321 322 322 321 320 321 320 320 320 320 321 323 323 322
320 320 320 321 322 323 324 324 324 324 324 324 325 325 325 324 324 323 322 323 324 325 325 325 325 324 323 323 322 322 321 322 323 323 322 321 321 321 321 321 321 321 321 321 321 322 322 322 321 321 322 321 321 321 321 321 320 320 319 319 321 322 323
320 321 321 322 323 324 324 324 324 323 323 323 324 324 323 323 322 322 323 324 325 325 325 325 324 323 323 323 322 322 321 322 322 323 322 322 322 321 321 321 321 321 321 322 322 322 322 321 321 321 321 321 321 321 321 320 320 320 319 319 320 321 323

ECMWFFLT1_850_thetae_012.txt.gz
Theta_e
353 353 353 354 355 354 354 352 347 344 338 330 327 327 329 333 335 335 332 331 332 332 331 331 330 331 330 329 328 326 322 320 320 322 324 325 326 326 326 324 323 322 323 324 324 324 325 326 326 328 329 329 327 327 328 328 329 329 330 330 331 333 331
353 352 353 354 354 354 354 350 346 343 335 329 328 329 332 335 335 333 331 331 331 332 331 330 330 331 329 329 328 325 322 320 321 322 325 328 328 326 325 324 324 323 324 324 324 324 324 325 326 327 327 327 326 326 327 329 329 329 330 329 329 330 330
353 353 353 354 354 354 353 348 345 342 336 333 333 333 335 336 333 330 329 329 331 330 330 330 331 331 329 328 327 325 321 320 321 324 327 329 328 325 323 323 324 325 325 325 325 325 325 325 325 326 327 327 327 327 327 328 328 328 328 328 328 328 329
355 353 353 354 355 355 352 348 343 341 338 339 338 336 336 334 330 327 327 329 330 329 330 330 331 330 328 328 328 325 321 320 320 323 325 327 324 322 323 325 325 326 326 326 326 326 326 326 326 327 328 327 327 328 327 327 328 327 327 329 331 331 331
356 354 354 354 355 355 354 348 342 340 340 342 341 336 333 329 326 327 327 328 329 330 330 331 332 330 328 328 328 325 321 319 320 323 325 325 323 322 323 325 326 325 325 326 326 325 325 326 326 327 328 328 327 328 328 329 331 331 330 331 332 332 332
356 355 353 353 354 355 353 347 341 340 341 343 342 335 331 329 330 332 331 328 328 330 330 331 331 329 328 328 327 324 321 319 321 323 324 323 323 323 324 325 326 326 326 325 324 324 324 324 325 326 327 328 328 328 328 328 330 331 331 331 331 331 331
355 355 353 352 353 354 352 346 341 341 340 343 342 334 331 334 335 337 336 333 331 332 332 331 330 327 327 328 326 323 320 320 323 324 324 324 323 323 324 325 325 326 326 325 324 324 324 324 325 326 326 327 327 327 326 326 326 327 329 331 331 329 329
355 355 354 353 352 352 351 347 342 341 342 343 342 337 334 336 336 336 337 337 336 336 336 335 334 329 324 324 324 321 319 321 324 325 324 323 323 325 327 327 327 325 323 323 323 322 322 324 325 326 326 327 327 326 326 326 326 326 327 328 328 327 328
355 355 354 353 351 350 350 347 344 343 343 341 339 336 332 333 334 336 337 336 337 337 335 335 337 333 326 321 321 320 319 320 323 324 325 325 326 329 330 330 330 328 324 322 322 322 322 323 325 326 326 326 326 326 326 326 326 326 326 326 326 326 328
355 356 356 354 351 350 350 348 346 344 341 339 335 330 327 328 331 334 335 335 336 335 334 333 335 335 329 321 319 320 319 320 323 324 326 327 329 330 330 330 330 329 327 324 322 322 322 323 325 326 326 325 325 326 326 326 327 326 326 326 327 327 327
355 356 356 353 351 350 349 348 346 342 337 336 333 328 326 327 329 330 330 332 334 332 334 334 334 335 331 324 322 322 320 321 324 326 327 328 329 329 329 328 328 328 328 327 325 325 325 325 326 327 327 326 325 326 326 326 326 326 326 327 326 327 327
356 357 355 353 351 351 350 349 346 340 337 336 331 326 326 328 329 329 326 327 331 332 333 334 333 332 329 327 328 326 323 324 326 327 328 328 328 328 327 327 327 328 328 328 327 328 328 329 329 328 327 327 326 326 326 326 326 326 326 326 326 326 326
355 356 354 352 352 351 350 348 345 340 337 334 329 326 327 328 329 327 322 323 328 330 332 331 327 325 322 323 326 325 323 325 327 328 328 329 328 327 327 327 328 327 327 327 327 327 328 330 330 329 329 328 326 325 325 325 326 326 326 326 326 326 325
353 353 352 352 351 351 350 347 345 341 336 333 329 326 327 329 328 324 320 322 325 329 333 331 324 321 319 320 321 321 321 324 327 328 327 326 325 325 325 326 326 326 326 326 327 327 327 329 330 329 328 327 326 325 325 325 325 326 326 326 326 326 325
351 351 351 351 351 351 349 347 345 341 336 333 330 327 327 328 326 322 320 322 324 328 333 330 322 319 320 320 321 320 320 322 325 326 325 325 325 325 325 326 326 326 326 326 326 327 327 328 327 326 326 327 327 326 325 325 325 325 326 326 327 326 324
351 350 349 350 350 350 348 347 345 340 337 335 330 327 328 328 325 321 320 323 324 326 327 324 321 320 320 321 321 321 321 322 323 324 325 325 326 326 326 327 326 326 325 325 325 326 326 325 323 325 327 329 330 328 327 326 325 324 324 325 326 325 323
349 348 348 349 349 350 348 346 344 340 337 336 332 328 329 327 324 321 321 325 330 330 326 321 320 321 321 322 322 322 323 324 325 325 326 327 327 326 327 326 325 324 325 325 326 326 326 325 325 327 329 329 330 329 328 328 326 323 323 323 325 324 321
347 347 347 348 348 349 348 346 343 340 338 335 332 330 329 327 323 321 322 325 330 332 327 321 320 321 322 323 323 323 324 325 327 327 328 328 328 327 327 325 323 324 326 327 327 326 325 325 327 328 329 329 330 329 329 329 327 323 322 322 323 323 320
346 346 347 347 348 347 347 345 343 340 338 336 333 330 329 326 323 322 323 324 325 326 324 321 321 321 322 323 323 324 325 326 328 328 328 329 328 327 326 324 324 325 326 327 327 326 326 326 327 329 329 329 329 329 328 328 326 323 321 322 323 322 320
345 346 346 346 347 347 346 344 342 340 338 337 333 330 329 326 323 322 324 326 325 323 322 322 322 322 323 323 323 325 326 327 329 329 329 329 328 326 325 324 324 325 326 327 327 327 327 327 327 328 328 328 328 328 328 327 325 322 321 321 323 322 321
344 346 346 345 347 346 345 343 341 338 338 336 332 330 329 326 324 323 325 326 325 323 322 322 322 322 323 323 323 325 327 328 329 329 328 328 327 326 325 325 325 325 326 327 326 327 326 326 327 327 327 327 327 327 327 327 325 322 321 321 322 324 323
343 344 345 346 346 345 343 341 339 337 336 334 331 330 329 326 323 324 328 329 325 322 323 323 322 323 323 324 324 325 327 330 331 331 330 329 328 327 326 326 326 325 326 326 326 326 325 325 325 326 326 326 326 326 327 327 325 323 321 320 322 325 324
342 343 344 345 343 342 340 338 337 336 334 332 331 329 328 326 324 325 329 332 328 322 323 324 323 323 324 324 324 326 329 331 332 332 331 331 329 328 326 326 326 326 326 326 326 325 324 324 325 325 325 326 326 327 328 327 326 324 322 320 322 325 325
341 342 342 342 341 339 337 336 335 334 332 331 331 329 328 326 326 325 327 330 329 326 324 324 324 324 324 324 325 327 329 329 330 331 332 331 330 328 327 326 325 326 326 326 326 325 324 325 325 325 326 325 326 326 326 326 326 325 322 320 322 325 325
339 340 339 338 337 336 334 334 333 332 331 331 330 329 328 327 327 327 327 328 330 331 329 326 325 325 325 326 327 327 326 327 327 328 330 331 329 328 327 327 326 326 326 327 326 326 325 325 325 325 326 325 325 326 326 326 327 325 323 321 321 324 323
336 336 336 336 334 333 332 332 331 331 331 330 329 329 329 328 328 328 328 327 330 333 332 327 324 325 327 328 328 326 325 325 324 324 327 329 329 328 329 328 327 326 326 326 325 325 325 325 325 326 326 325 326 326 326 327 326 325 323 321 320 320 320
333 333 334 334 333 332 332 331 331 331 330 330 330 330 329 329 328 328 328 328 328 331 331 328 326 326 326 326 327 326 325 325 324 323 325 328 329 328 328 328 327 326 326 325 325 325 325 325 326 326 326 326 326 326 327 326 324 323 323 322 320 319 320
332 332 332 332 331 332 332 332 331 331 331 331 330 330 329 329 329 328 328 328 328 328 330 329 327 327 327 326 326 326 325 325 324 323 324 327 328 327 327 327 327 325 325 324 324 324 325 325 326 326 326 326 326 326 327 327 324 321 322 323 321 321 321
332 332 332 331 332 331 330 331 331 330 331 332 330 330 329 329 330 329 328 328 328 328 329 328 327 327 328 327 327 326 326 325 325 324 324 326 326 325 326 328 327 325 324 323 323 324 325 325 326 326 326 326 326 325 327 328 326 322 322 323 323 322 322
332 331 332 334 334 332 330 329 329 329 329 330 330 329 329 329 329 329 328 329 329 328 328 327 326 327 328 328 328 327 326 326 327 326 326 326 325 325 327 327 326 326 326 324 324 325 325 325 326 327 326 326 326 326 326 327 327 325 323 322 323 323 322
332 332 332 333 333 331 330 329 330 330 329 330 329 330 330 329 329 329 329 330 329 329 328 328 327 327 328 329 328 328 327 328 328 327 325 325 327 328 328 327 326 327 326 326 326 326 326 325 326 326 326 325 326 326 325 326 328 328 324 321 322 323 323
331 331 331 331 331 330 329 329 330 330 329 330 329 328 328 329 329 329 330 330 330 329 329 328 328 328 328 329 329 329 329 329 328 326 323 324 327 328 327 327 326 326 327 327 326 326 326 326 326 326 326 325 325 325 325 326 327 326 322 320 322 323 323
330 330 330 329 328 328 327 327 327 327 328 330 330 328 327 328 328 328 330 330 330 330 328 328 328 328 328 328 328 329 329 328 327 326 324 325 327 327 327 327 326 325 326 326 326 327 326 326 326 326 325 325 325 324 325 325 325 323 320 320 321 322 322
328 328 327 326 326 326 326 325 326 324 325 327 327 326 326 327 329 330 330 330 331 332 330 328 328 328 327 327 329 330 330 327 326 325 324 326 328 327 326 326 325 326 327 326 325 325 325 325 326 325 324 324 324 323 323 323 323 321 321 321 321 320 321
326 325 325 324 325 324 323 323 322 322 322 324 324 325 325 325 327 330 330 330 330 331 329 327 326 325 325 328 331 331 329 327 327 327 326 327 328 327 325 325 324 325 325 324 322 322 322 323 324 323 322 323 322 322 322 322 322 321 321 321 320 320 320
324 324 323 323 322 321 320 319 320 321 323 324 324 324 325 325 326 328 330 331 330 328 326 324 324 325 327 330 331 330 328 328 327 328 328 328 326 326 325 323 322 322 322 322 321 321 321 321 322 321 322 322 321 321 321 321 321 321 320 320 319 319 320
323 322 321 319 319 318 318 319 321 322 323 324 324 324 324 325 325 326 328 328 327 325 323 323 324 326 328 329 330 329 328 327 325 326 327 327 326 326 327 324 322 321 321 321 321 321 321 321 322 322 322 322 321 321 321 320 320 320 319 319 319 319 320
320 319 318 318 319 319 320 321 322 323 323 323 323 323 323 324 324 324 325 325 323 323 323 324 325 327 329 329 329 329 327 325 325 326 327 327 326 326 326 324 322 322 321 321 321 321 321 321 322 322 321 321 321 320 320 319 319 319 318 318 318 318 319

ECMWFFLT1_850_thetae_015.txt.gz
Theta_e
348 348 349 346 343 346 350 355 357 360 358 352 346 340 336 339 341 337 334 334 332 331 331 330 332 333 335 336 335 332 330 327 324 321 321 326 331 334 334 335 334 331 330 333 333 331 328 326 326 326 328 329 330 331 331 330 330 330 331 332 331 331 329
348 347 349 347 343 343 351 357 359 359 356 352 346 339 337 339 336 333 335 334 330 331 331 331 332 332 332 333 332 330 329 326 325 324 325 330 333 335 335 335 334 332 332 332 329 327 326 326 326 327 328 329 330 330 330 331 331 330 330 331 331 331 330
349 347 351 351 347 346 350 357 358 356 354 352 347 340 339 336 330 330 336 332 327 330 332 331 331 330 330 330 328 330 331 328 327 328 330 333 335 335 334 333 334 334 335 333 330 328 327 325 325 326 326 328 330 331 330 331 331 329 329 329 329 330 330
350 349 350 353 353 350 350 354 356 354 352 351 348 343 339 334 329 332 335 329 327 330 332 332 332 332 333 331 329 333 336 333 330 330 330 333 334 334 333 333 334 335 335 333 330 327 325 323 324 324 325 326 330 332 332 332 330 329 329 328 328 329 330
351 352 350 352 355 350 349 353 354 351 350 349 348 346 341 333 332 336 332 328 332 337 336 335 335 335 334 331 332 335 335 331 329 327 327 329 331 331 332 334 335 335 335 334 332 330 327 324 323 324 325 327 330 332 332 333 331 330 329 328 328 328 329
351 353 351 353 355 350 349 353 353 349 347 346 347 348 345 339 338 340 336 332 336 341 338 335 336 337 334 332 333 334 331 327 325 325 325 327 329 330 332 334 334 334 334 333 332 331 329 326 325 323 324 327 330 331 330 330 330 329 328 328 328 327 328
351 354 353 353 355 352 350 352 351 348 345 343 346 348 348 346 342 341 341 339 338 339 338 337 338 338 335 335 337 336 332 330 331 330 329 330 331 332 333 333 334 334 334 332 330 330 331 330 328 325 325 326 328 328 328 327 327 327 328 329 328 327 329
351 355 355 355 355 351 350 352 350 346 343 343 347 349 346 344 341 338 341 342 340 339 339 339 342 340 338 337 337 336 335 334 333 332 331 331 331 332 333 333 333 333 333 333 332 332 332 331 328 326 325 326 327 327 327 326 327 327 328 329 327 327 329
352 357 356 356 354 349 349 351 348 344 343 344 348 349 345 341 339 338 339 340 339 339 340 340 341 342 342 338 334 334 335 332 331 331 331 332 332 333 333 332 331 331 332 333 333 332 332 331 327 325 325 327 327 327 327 326 326 328 328 328 328 328 328
355 358 357 356 352 350 350 350 347 344 343 345 349 348 343 340 338 338 338 338 338 338 338 337 336 339 342 340 337 336 335 332 332 332 332 333 333 332 332 330 329 330 330 330 331 331 332 331 330 329 329 329 328 328 328 327 327 328 328 328 329 330 328
356 359 359 357 353 352 352 351 347 344 344 347 349 346 342 340 339 338 338 337 336 336 336 336 334 335 339 340 339 337 335 334 334 334 334 334 332 331 331 330 329 329 329 329 330 330 330 330 330 331 331 332 331 329 329 328 327 328 327 328 330 330 328
358 360 360 359 356 354 354 351 347 345 346 348 349 346 343 340 338 338 338 335 333 334 333 334 334 335 337 337 337 336 336 335 335 335 334 333 332 332 331 331 330 329 329 329 329 329 328 328 329 330 330 332 332 330 328 327 328 329 329 330 329 328 327
360 362 361 360 358 355 355 353 349 348 349 350 350 346 341 338 337 337 336 334 333 333 333 333 335 334 334 334 334 334 334 334 335 335 334 332 332 332 331 331 331 331 330 330 329 328 328 328 329 329 330 331 332 331 330 330 330 332 334 333 330 330 330
358 362 363 362 359 356 356 355 352 352 353 352 350 344 338 333 334 334 332 332 334 334 334 335 335 332 331 332 330 329 330 332 334 334 333 331 332 332 332 332 332 331 331 330 330 329 328 328 328 329 330 331 331 332 331 331 332 335 336 334 331 331 332
357 359 362 362 360 358 357 355 355 355 355 352 347 342 335 331 334 336 332 330 333 334 335 338 335 330 329 331 327 324 326 327 329 331 331 331 332 332 332 332 332 332 331 330 329 328 328 328 329 329 330 330 331 331 332 333 334 335 332 331 329 328 327
357 357 359 361 359 359 357 357 358 357 354 350 345 340 334 332 336 337 329 326 331 335 337 338 333 325 324 327 324 323 325 324 325 327 329 331 333 333 333 332 332 331 330 329 329 328 329 329 329 329 329 329 331 332 333 334 334 332 331 328 325 323 322
353 354 356 358 359 359 358 359 359 358 354 349 345 339 335 336 336 331 327 329 335 336 337 336 331 322 320 322 322 324 325 325 326 327 329 332 333 333 333 332 331 331 330 329 328 329 329 330 329 329 329 330 331 332 333 333 332 331 330 326 322 321 321
347 351 353 357 359 359 359 360 360 358 354 350 345 340 336 336 332 327 329 334 337 336 337 336 330 323 321 322 322 322 323 325 328 329 330 333 333 333 332 331 330 330 330 329 329 329 329 329 329 329 329 330 331 332 332 332 331 330 328 324 322 322 321
344 349 352 355 357 358 358 359 359 357 354 350 345 340 337 334 330 327 329 334 336 337 339 339 335 328 325 325 324 323 323 324 328 330 332 333 334 333 332 331 330 330 329 329 328 328 329 329 329 329 329 330 330 330 330 330 330 330 327 325 323 322 321
345 348 351 353 354 357 357 358 357 356 353 350 345 341 337 334 332 330 328 330 335 336 335 337 337 333 329 328 326 324 324 326 329 332 334 334 333 333 333 331 331 330 329 328 328 329 329 329 328 328 328 328 329 329 329 329 328 328 327 326 323 322 321
348 348 351 352 353 355 355 356 356 355 352 350 346 342 340 337 336 335 330 329 336 336 330 329 330 330 331 332 329 326 325 328 330 332 334 335 334 334 333 332 331 330 329 329 328 329 330 328 328 328 327 327 328 327 328 328 328 328 328 326 324 322 322
348 348 351 352 352 354 355 355 354 354 352 349 345 343 342 341 339 339 335 334 338 337 332 325 323 326 331 333 332 330 329 331 333 333 335 336 335 335 334 333 331 330 329 329 329 330 330 328 327 327 327 328 328 327 327 329 329 329 328 325 324 323 322
345 348 350 352 351 353 354 353 354 353 351 347 344 343 342 342 341 341 339 339 339 338 337 333 326 326 329 331 333 334 334 335 335 335 336 336 335 335 335 333 331 330 329 329 329 330 329 328 327 327 327 327 328 327 327 328 328 328 327 326 324 323 322
344 346 349 350 351 353 353 353 353 352 349 346 344 343 341 341 342 342 341 340 339 338 341 340 334 330 330 330 332 335 336 336 336 335 335 336 335 335 334 333 331 330 329 329 329 329 329 328 328 328 328 328 328 327 326 326 327 327 328 326 324 323 322
343 347 349 350 351 353 353 353 352 351 348 346 344 342 341 340 341 342 341 341 339 338 341 341 338 335 334 333 333 335 336 336 336 336 335 335 335 334 333 333 331 330 329 329 329 329 328 328 327 327 328 327 326 326 325 324 325 326 327 326 322 322 323
344 347 349 349 351 351 347 346 347 346 346 344 343 341 341 341 341 340 341 342 340 337 338 339 339 338 337 336 335 335 336 337 336 336 334 334 334 333 333 332 331 330 330 329 328 328 327 327 327 327 328 328 327 326 325 325 326 327 328 325 322 321 323
346 347 347 349 349 345 338 336 338 339 342 343 340 339 340 341 341 340 341 344 343 340 338 338 339 339 339 338 336 335 337 337 337 336 335 333 333 333 333 332 331 331 331 329 328 328 328 328 328 327 328 328 328 327 326 326 327 328 328 326 323 321 322
345 345 345 346 344 339 337 338 336 337 342 342 337 337 339 337 334 333 336 340 342 341 338 337 338 339 339 339 337 335 335 337 337 336 335 334 334 333 333 333 332 332 331 329 329 328 328 328 328 328 328 328 328 327 326 326 328 328 327 326 324 321 321
342 343 344 343 340 338 340 341 338 338 341 339 338 339 338 334 333 331 332 335 337 337 338 337 337 338 339 340 338 333 333 336 337 336 335 334 333 333 333 333 333 331 331 331 330 330 329 329 329 329 328 328 327 326 326 326 327 327 326 325 324 321 321
341 343 342 339 337 338 339 340 340 339 337 336 338 341 339 335 335 334 332 332 332 333 336 338 337 337 338 340 338 334 333 336 336 335 335 335 333 332 331 330 330 330 330 331 331 331 330 330 330 329 328 327 327 326 326 325 326 326 326 325 323 321 320
341 341 339 336 337 338 337 339 340 341 341 338 334 335 335 333 332 332 330 330 329 331 336 339 339 339 340 341 340 337 336 337 337 336 335 335 334 333 331 330 331 331 330 330 330 330 331 330 330 329 328 327 326 326 326 325 326 326 326 325 324 322 320
341 339 336 337 339 339 338 338 338 340 343 341 335 332 333 332 330 330 330 328 329 333 338 341 341 340 340 340 340 338 337 337 336 335 335 335 335 333 331 331 333 333 330 328 329 330 330 330 328 328 327 326 326 326 326 325 326 327 327 325 323 322 321
343 341 341 342 341 337 335 337 337 338 340 341 340 340 339 337 337 336 333 332 333 337 341 341 339 338 339 340 339 338 338 337 335 334 335 334 333 332 331 332 333 332 329 328 328 328 329 328 327 327 326 326 326 326 326 326 326 327 326 323 322 321 321
344 343 343 340 336 333 332 334 335 336 335 334 335 335 331 331 334 334 334 335 335 337 340 341 339 339 340 341 340 337 336 335 335 336 335 333 330 331 332 331 329 328 326 327 327 328 328 327 327 327 327 326 326 326 326 325 325 324 322 320 320 320 320
343 340 336 332 329 329 330 329 328 328 327 325 325 323 322 322 326 327 329 331 333 334 337 340 341 341 339 338 337 335 334 334 335 335 334 332 330 331 330 328 325 324 326 327 328 328 327 326 326 326 325 325 325 325 325 323 322 321 320 319 319 319 319
343 336 331 328 326 326 326 325 324 323 321 320 320 319 320 322 325 326 327 328 331 333 335 338 340 338 335 334 333 333 333 334 333 331 330 330 330 330 329 327 325 326 327 327 327 327 326 324 322 322 323 322 322 323 322 321 320 319 318 318 318 318 318
336 332 328 325 324 325 324 322 320 320 319 319 321 321 322 325 329 331 330 331 333 333 335 336 336 335 333 332 331 331 332 332 330 330 329 329 329 329 328 327 326 326 326 326 326 325 324 322 321 321 321 321 322 322 322 321 320 318 317 318 318 318 318
328 327 328 326 325 323 321 320 320 319 320 321 322 323 325 328 332 332 330 331 333 333 333 335 335 333 332 331 330 330 331 330 330 330 329 329 328 329 329 328 327 326 325 325 325 324 323 321 321 321 321 321 322 321 321 320 318 317 317 317 317 317 317

ECMWFFLT1_850_thetae_021.txt.gz
Theta_e
344 345 347 348 347 346 345 346 348 350 352 352 353 354 353 352 349 342 334 330 329 330 329 326 324 322 321 321 320 319 318 318 317 317 316 316 316 317 317 319 319 319 319 320 324 327 328 326 325 325 324 324 324 324 325 327 329 330 331 330 329 329 329
344 345 347 347 346 346 346 347 349 351 352 352 353 353 352 352 348 343 335 330 330 330 329 326 324 322 321 321 320 319 319 319 318 317 317 316 316 316 318 321 322 321 320 321 326 332 331 328 326 325 324 324 323 323 323 325 327 328 328 328 328 328 328
344 344 346 346 346 346 347 348 350 352 352 352 352 352 352 350 345 341 335 330 329 330 329 327 324 322 321 321 319 319 319 319 318 317 316 316 316 317 319 322 323 321 319 322 329 333 331 329 327 325 324 324 323 324 324 325 327 328 327 327 327 327 328
343 345 345 346 347 346 347 349 350 352 353 353 352 351 351 350 345 341 336 330 328 329 328 328 324 322 321 320 319 318 318 319 319 318 317 316 317 318 319 320 320 318 319 324 327 328 327 327 325 323 322 322 322 323 325 329 331 331 331 330 328 327 328
344 344 345 347 348 347 348 350 351 352 353 353 353 352 351 350 349 345 339 332 328 327 327 327 324 321 320 319 319 318 319 320 319 318 317 317 317 318 319 318 318 319 322 325 327 327 328 328 326 324 323 322 323 323 324 329 332 333 333 332 330 329 328
345 344 346 347 348 348 349 350 351 352 353 353 353 352 352 352 351 348 342 334 328 328 329 329 326 321 320 319 319 320 320 320 319 319 318 317 318 319 319 318 319 321 325 328 329 330 331 330 328 327 328 327 326 326 324 326 328 330 332 332 332 331 330
346 345 347 347 348 349 349 350 351 352 352 353 354 353 354 354 352 349 344 337 331 329 330 331 327 322 320 319 319 320 320 319 319 319 318 318 319 319 319 319 321 325 328 329 330 331 331 331 329 329 330 329 329 328 327 327 327 327 329 332 333 333 332
346 346 348 348 348 350 349 351 352 353 354 355 356 355 355 354 353 349 345 340 334 331 331 332 327 322 320 319 319 320 320 321 320 319 318 318 318 319 320 322 325 327 329 330 331 331 331 331 331 330 330 330 329 329 329 329 329 328 328 331 333 333 332
344 345 348 348 349 350 350 351 352 353 355 357 357 357 356 355 353 349 345 341 337 333 332 332 328 322 320 321 323 323 324 326 325 320 318 317 318 320 322 325 328 330 331 331 331 330 330 331 330 330 330 330 329 329 330 330 330 329 328 330 332 331 329
343 344 346 348 349 350 351 352 353 353 355 358 358 357 356 354 352 349 346 344 340 335 333 333 330 322 320 326 331 331 331 332 328 322 318 317 318 321 324 327 331 332 332 331 331 330 330 330 330 330 330 329 328 329 330 330 330 329 328 329 330 329 327
344 347 348 348 348 349 350 351 352 353 354 355 356 356 355 354 352 350 348 346 343 338 335 335 330 323 325 333 338 338 338 334 328 322 318 318 320 322 326 330 333 333 333 332 330 329 329 330 330 330 329 329 329 329 330 330 330 329 328 328 329 329 327
343 348 349 349 348 348 348 349 350 351 352 353 354 354 354 353 352 350 349 348 346 342 340 337 331 328 333 338 340 341 338 331 327 324 319 318 321 322 325 329 331 330 330 328 327 327 329 331 330 330 329 328 329 329 330 330 329 329 328 328 330 330 329
341 346 348 349 349 348 348 348 349 349 350 351 352 352 353 353 352 350 349 349 348 344 342 339 336 336 339 339 341 341 334 326 327 327 320 318 320 319 321 323 324 324 323 323 325 326 328 329 328 327 326 326 327 327 328 328 328 328 329 330 331 331 330
342 346 349 351 351 350 350 348 349 349 350 351 352 352 351 352 351 349 347 347 347 344 342 341 339 339 339 338 339 339 332 326 327 325 319 319 320 319 320 320 320 320 321 323 325 326 326 325 324 324 324 324 324 324 325 326 327 329 330 330 331 332 331
345 347 351 355 355 353 352 351 351 351 351 352 352 351 351 350 349 348 346 344 344 343 342 341 340 339 338 337 337 337 335 330 326 321 319 321 320 320 320 320 320 321 322 322 323 323 324 323 323 324 324 324 324 325 326 326 328 330 331 330 331 331 329
349 352 353 356 358 357 354 353 352 352 352 352 351 351 350 349 347 346 345 343 343 343 342 341 340 338 337 335 334 336 337 331 323 321 321 321 321 321 321 321 321 321 321 322 322 322 323 323 323 324 324 325 326 326 326 326 328 329 329 329 329 329 328
345 352 354 354 356 358 356 355 354 352 353 352 351 351 350 348 346 344 344 344 342 341 341 341 340 337 334 334 332 334 335 329 322 321 322 321 322 321 321 321 321 322 322 322 322 322 323 323 323 325 326 327 328 327 326 326 327 328 328 328 328 328 329
336 343 349 350 350 353 354 355 354 353 353 352 351 350 347 346 347 345 345 343 339 339 339 338 338 334 332 334 333 332 331 326 321 321 322 322 322 321 321 321 321 322 322 322 322 322 322 322 323 325 328 329 329 329 327 326 327 327 328 328 328 328 329
339 339 345 350 351 351 351 354 355 355 354 353 351 349 347 346 348 347 345 340 337 336 336 335 334 333 333 336 333 329 327 324 322 322 322 322 322 322 322 321 321 322 322 322 323 323 322 322 323 326 328 330 330 329 327 327 328 327 327 328 328 327 328
340 340 343 348 353 354 353 354 355 355 354 353 352 350 348 348 348 347 343 339 336 336 336 335 333 332 334 335 333 329 326 323 322 323 323 323 323 322 322 322 322 323 323 323 324 324 324 323 323 326 328 330 330 328 327 328 328 328 328 328 327 327 327
337 339 339 342 347 351 353 352 352 351 352 353 352 351 350 350 348 345 341 339 338 337 337 336 334 332 333 335 335 333 327 322 322 323 323 323 323 323 323 323 323 323 323 323 324 325 326 325 324 325 327 329 329 328 327 327 328 328 327 327 327 326 325
336 336 336 336 338 342 347 349 349 349 350 352 353 351 351 350 348 344 341 340 339 338 338 336 334 333 335 336 336 333 327 323 322 323 323 323 323 322 323 324 323 324 324 324 325 326 327 327 326 326 327 329 330 329 328 328 328 328 328 327 326 325 324
335 334 335 337 337 339 342 345 347 348 350 352 352 351 350 349 347 345 342 340 339 339 338 336 334 334 336 337 335 333 331 328 325 323 323 323 323 322 323 323 324 324 325 326 326 327 328 328 328 328 329 329 330 329 329 328 328 328 328 327 326 325 325
335 335 336 339 342 343 346 350 351 351 352 354 353 352 351 350 348 347 345 342 340 340 338 336 334 335 336 335 334 333 333 332 329 327 324 323 323 323 323 323 323 324 326 327 328 328 329 330 330 329 329 329 329 329 328 328 328 328 327 327 326 325 325
336 338 340 342 344 346 352 357 358 356 356 357 355 355 354 352 351 350 348 346 343 341 338 335 335 335 335 335 335 334 333 332 332 330 328 326 326 325 324 324 324 326 327 328 329 330 331 331 331 330 330 329 328 328 328 327 327 327 328 328 327 326 325
338 341 344 344 345 349 354 358 359 360 360 359 357 357 356 354 353 351 350 348 343 339 336 335 334 334 334 335 335 335 334 334 335 335 333 331 330 328 328 327 327 329 330 330 332 332 332 332 332 331 331 329 328 328 328 328 328 327 327 328 327 326 324
340 343 344 343 343 348 353 357 359 360 359 359 358 356 354 353 352 349 348 346 341 337 336 335 335 334 335 336 336 336 336 337 337 338 337 336 335 334 334 333 333 334 334 334 334 333 332 333 332 332 331 330 329 329 328 328 328 327 326 327 327 326 325
341 343 344 341 340 343 349 355 358 359 358 358 356 354 353 352 350 347 345 343 341 339 339 338 338 338 338 339 339 339 340 340 341 340 340 339 338 337 337 337 336 336 335 335 335 333 332 332 332 332 331 330 330 329 329 328 328 327 325 326 326 325 325
341 343 343 339 339 343 349 354 356 356 356 355 354 352 351 350 347 344 343 343 343 342 341 342 343 344 344 344 344 343 342 342 342 341 340 339 338 336 335 334 334 335 334 333 334 333 331 332 332 331 331 331 330 330 329 329 329 327 325 326 326 325 324
344 342 339 339 344 349 352 355 356 352 350 351 351 350 349 347 346 345 344 344 345 344 344 344 343 341 340 341 344 345 345 343 342 341 340 339 337 336 335 333 333 334 333 333 334 331 330 331 332 331 331 330 329 329 330 330 328 326 326 326 326 325 324
343 338 337 344 352 355 355 356 352 347 345 348 349 348 347 345 344 344 344 344 344 341 339 335 330 327 327 329 333 338 340 342 342 341 341 340 338 337 336 335 334 334 334 333 333 331 329 329 330 331 332 329 327 328 330 330 328 326 326 326 326 325 324
341 339 342 351 354 354 354 352 346 341 343 344 345 346 345 343 343 344 342 340 336 332 329 327 325 324 324 326 329 331 333 336 339 341 341 341 340 338 336 335 335 334 333 332 332 331 327 324 326 330 332 329 326 328 330 329 328 326 326 325 325 324 324
341 343 348 351 348 346 346 345 340 339 341 343 343 345 345 344 345 342 336 332 329 327 326 326 327 325 325 327 330 330 330 331 334 337 339 339 338 335 333 333 333 333 333 331 331 330 327 325 326 330 331 329 328 328 329 328 327 327 326 325 325 325 325
341 344 346 345 342 342 342 340 337 336 340 343 344 344 342 341 339 335 331 328 326 325 323 323 325 326 326 327 329 327 326 327 331 333 335 334 333 332 331 331 333 333 333 331 330 329 329 329 330 331 331 329 328 328 328 327 326 327 326 325 325 326 324
341 344 344 341 340 342 341 339 337 336 338 341 342 340 337 335 331 329 327 325 323 322 321 320 322 323 323 324 324 323 324 327 330 332 332 332 332 331 330 330 331 332 332 331 329 328 328 329 330 330 329 329 327 327 327 327 326 325 325 325 326 325 323
340 341 341 339 339 340 339 339 340 338 336 338 338 336 332 328 324 323 323 322 322 322 321 319 319 319 320 320 322 325 328 331 332 332 332 331 331 330 330 330 330 330 330 330 329 329 329 328 329 328 328 328 327 326 327 326 324 324 325 325 325 323 321
339 339 339 338 338 338 337 338 340 338 335 334 333 329 326 324 322 321 322 322 322 321 319 318 318 318 318 319 321 325 329 330 331 331 331 331 331 331 330 330 329 329 328 328 328 328 328 328 328 328 328 328 327 326 325 324 323 322 323 323 322 321 320
339 338 337 336 337 338 338 337 337 334 330 327 325 324 324 324 323 323 323 323 321 319 319 319 319 318 318 319 322 325 327 329 330 331 330 330 331 331 330 330 329 328 328 327 327 328 327 326 326 326 327 327 326 323 322 322 321 321 322 321 320 318 316

ECMWFFLT1_850_thetae_024.txt.gz
Theta_e
346 349 349 348 349 349 349 350 350 349 349 348 349 349 350 352 352 351 350 347 342 334 328 326 325 323 323 323 322 321 318 316 316 315 316 316 316 316 316 317 318 318 318 317 318 322 326 328 327 326 324 324 323 323 323 323 324 327 329 329 328 328 328
345 348 349 348 349 349 349 350 349 349 348 349 348 349 350 351 351 350 347 345 340 333 327 327 326 323 323 323 323 321 319 318 317 316 316 316 316 316 316 317 318 318 317 317 319 322 324 326 326 325 323 323 323 323 323 323 324 326 327 327 327 327 327
343 346 348 348 349 348 350 350 349 349 348 348 349 348 349 350 349 348 344 342 339 332 328 328 327 324 324 323 322 321 319 319 319 317 317 316 316 317 317 317 318 318 317 317 319 321 322 324 324 323 322 322 321 321 322 322 324 325 326 325 325 326 327
342 346 347 347 349 348 349 349 348 349 348 348 348 346 348 348 348 348 344 340 337 332 329 329 328 325 323 322 321 319 318 318 318 318 317 316 316 317 318 318 318 318 317 319 322 324 324 326 326 325 326 325 322 320 320 321 322 323 324 325 326 326 326
341 345 347 347 349 348 348 349 349 349 348 348 347 347 347 347 349 349 346 342 337 333 329 329 329 326 324 322 320 319 318 318 319 319 317 316 316 317 318 318 319 318 318 321 325 328 328 329 328 328 329 328 326 325 324 324 323 323 324 325 326 328 328
342 343 346 347 348 348 348 348 348 348 347 347 347 347 349 348 349 349 347 344 340 334 330 329 330 328 325 322 321 319 318 318 318 318 318 317 317 318 318 319 319 318 320 324 328 329 329 329 329 329 330 329 328 328 327 328 327 327 327 326 327 328 328
342 343 345 346 347 347 347 347 348 348 347 347 348 349 350 350 350 349 348 346 343 338 331 329 330 329 326 323 320 319 318 318 318 318 317 317 317 318 318 319 319 319 322 326 328 329 329 329 329 330 330 330 329 329 328 329 329 329 329 328 327 328 329
343 343 344 345 346 347 347 347 348 348 349 349 350 351 351 350 351 350 349 347 346 341 333 330 330 330 327 324 321 320 318 318 319 318 318 317 317 318 318 319 318 320 324 327 328 330 329 330 330 330 331 331 330 329 328 329 330 330 329 329 328 328 329
343 343 343 345 345 346 347 347 347 348 349 350 350 350 350 351 352 351 349 348 348 344 337 331 330 331 330 324 321 319 319 319 321 320 318 317 317 318 318 318 319 322 325 327 329 330 330 330 330 331 331 331 330 329 329 329 330 330 330 329 329 328 328
343 343 343 344 344 346 347 346 348 349 350 351 350 351 352 352 352 351 351 351 348 346 340 333 331 332 331 326 322 319 320 323 325 322 320 318 317 318 318 318 320 324 326 325 327 329 330 330 329 329 330 330 329 329 329 329 330 330 330 329 329 328 328
343 342 343 345 345 347 347 347 349 349 350 351 351 353 353 352 353 352 352 351 350 348 344 337 333 333 332 328 322 320 323 328 327 324 320 318 317 318 319 318 320 323 323 324 327 330 331 330 329 329 329 330 329 329 329 328 329 329 330 329 329 328 328
344 343 344 346 345 347 348 347 349 349 350 351 351 352 353 353 353 353 353 352 351 350 347 341 336 334 334 330 323 322 330 330 327 324 321 319 317 319 319 319 320 320 321 325 330 331 330 330 329 330 330 330 330 329 328 327 328 329 329 329 328 328 328
345 344 344 346 345 347 348 348 349 350 350 350 351 352 353 353 353 354 353 353 352 352 349 345 339 335 336 332 324 327 335 334 328 325 321 318 318 319 320 320 320 320 322 327 331 331 329 328 327 328 329 329 328 327 326 326 327 327 327 327 327 328 329
342 342 342 344 345 347 348 348 349 350 350 351 351 352 353 353 353 354 354 353 353 352 350 347 342 337 337 333 326 329 338 336 330 325 321 319 320 320 321 321 321 320 322 326 328 327 326 325 325 326 326 325 324 324 324 324 324 324 325 326 328 329 331
339 340 341 343 345 347 347 348 349 349 350 351 352 353 354 354 355 355 355 354 353 352 350 348 344 339 338 334 327 332 339 337 330 323 321 321 320 321 321 321 322 321 321 323 323 323 323 324 325 324 323 323 323 323 324 324 323 323 325 327 329 329 330
338 339 342 342 345 345 346 348 348 348 350 351 352 354 355 356 356 356 356 355 354 352 350 349 345 342 339 334 332 335 339 337 331 324 320 321 321 321 322 321 322 322 321 321 321 321 323 323 324 323 322 322 323 324 325 326 325 325 326 327 328 328 328
337 339 342 342 344 345 345 346 347 347 349 350 351 353 354 355 356 355 356 355 353 352 350 349 347 344 340 336 335 337 337 335 332 325 321 322 322 321 322 322 322 322 321 322 322 322 322 322 322 322 322 322 323 324 326 326 326 326 326 327 328 328 328
340 341 342 343 344 346 346 346 347 348 348 348 350 351 352 353 355 355 354 353 352 351 350 348 347 345 341 338 338 337 336 334 332 326 322 322 323 322 323 322 322 322 322 321 322 322 322 322 322 322 321 322 323 323 325 326 326 326 326 327 328 328 328
340 341 342 343 344 345 346 347 348 347 347 347 348 350 350 351 352 353 353 353 352 351 349 348 347 344 341 340 339 336 334 334 334 329 324 323 323 323 322 322 322 322 322 322 322 322 322 322 322 322 322 322 323 323 323 325 326 327 327 327 328 328 328
339 340 342 344 345 347 347 348 349 349 349 349 348 349 350 350 351 352 352 352 352 350 348 347 345 344 341 340 338 335 333 334 335 331 325 323 323 322 322 322 322 322 322 322 322 322 323 323 323 322 322 323 324 323 324 325 326 327 327 328 328 328 328
339 340 341 344 346 347 350 351 352 352 351 350 350 351 351 351 351 351 351 351 351 349 347 344 343 343 341 340 337 334 333 334 334 331 326 323 323 322 322 322 323 322 322 322 322 323 323 323 323 324 324 324 324 324 325 326 327 327 327 327 328 328 328
336 336 336 337 338 341 345 348 350 351 351 351 351 352 352 352 351 351 350 350 349 348 346 344 343 342 340 339 336 333 333 333 334 333 328 323 323 323 322 322 322 321 322 322 322 323 323 323 324 326 326 326 326 325 326 327 328 328 328 328 328 328 328
333 334 334 333 334 334 337 339 341 345 347 349 351 353 353 352 352 351 350 349 347 346 344 343 342 341 339 337 336 334 334 332 333 334 330 324 323 323 322 322 323 322 322 323 323 323 324 325 327 328 329 329 328 327 327 328 328 328 329 329 328 328 327
333 333 333 333 334 335 335 336 338 341 344 348 352 354 354 352 351 350 348 347 345 343 342 342 341 341 338 338 338 336 333 333 334 335 331 327 327 326 324 323 323 323 323 323 323 324 324 326 329 331 334 333 331 329 328 328 329 329 328 329 328 327 327
335 334 335 335 335 336 337 339 341 342 345 349 352 354 354 353 352 350 347 345 342 339 340 340 341 340 341 342 340 336 334 335 335 332 331 331 332 331 329 328 327 326 324 323 323 323 323 325 327 330 333 332 332 331 330 329 329 329 328 328 328 327 327
336 335 336 336 337 337 339 340 340 342 347 350 351 354 353 351 349 347 344 343 340 338 338 339 340 340 342 342 340 337 336 335 332 331 332 334 335 336 335 334 333 332 329 327 326 326 325 325 326 328 328 327 328 331 331 330 329 328 328 328 328 328 327
336 336 337 337 338 339 340 339 342 346 350 352 353 353 351 345 341 340 338 336 335 337 339 341 342 343 343 342 340 337 336 333 332 335 336 337 337 338 338 338 337 335 334 332 332 331 331 330 330 330 327 325 325 329 331 330 329 328 328 328 328 328 327
337 338 340 341 342 342 340 339 343 349 352 353 353 353 353 347 342 341 339 335 335 340 343 344 344 345 344 341 338 336 336 336 336 338 338 338 339 339 340 340 340 339 337 335 334 334 334 334 333 332 330 327 326 327 329 329 328 328 328 328 328 328 328
339 340 342 343 343 343 340 339 346 353 356 357 355 354 352 348 344 343 344 341 339 341 345 346 346 345 342 338 337 336 337 338 338 339 340 340 340 341 341 341 340 340 337 335 334 334 334 334 334 333 332 331 328 325 327 328 327 326 328 328 329 329 328
341 340 340 340 341 342 342 344 350 356 358 358 357 354 351 347 345 344 345 343 338 339 346 347 343 341 338 337 338 340 340 341 342 342 342 342 342 342 341 340 340 338 336 335 334 334 334 334 334 333 333 332 329 326 327 328 327 327 328 329 329 329 327
342 343 344 344 345 345 344 346 349 353 355 357 357 354 349 346 346 345 343 341 337 339 344 344 340 339 341 340 341 340 338 339 340 340 341 342 343 342 341 340 339 337 335 334 334 334 335 334 334 333 333 333 331 328 326 326 327 328 329 330 330 329 327
343 346 347 345 344 342 342 346 348 350 354 354 352 350 347 345 346 343 338 339 339 341 343 341 339 338 336 333 332 331 331 331 333 335 337 339 340 341 340 339 338 334 332 331 332 333 334 333 333 332 332 331 329 326 325 326 328 329 330 330 329 328 327
341 343 343 341 339 339 341 345 348 351 352 350 346 346 345 343 342 339 337 339 341 342 340 336 332 329 327 325 326 327 329 330 330 330 331 331 332 334 335 335 333 331 329 329 329 331 332 332 331 331 330 330 329 327 328 329 329 329 329 329 328 327 327
339 341 341 340 341 343 347 349 350 351 350 346 344 343 342 342 342 341 340 339 337 337 335 329 324 324 325 326 328 328 329 329 327 325 323 324 325 327 329 330 330 330 329 329 328 329 331 331 330 329 330 330 330 329 330 329 328 328 328 328 327 327 326
340 341 342 343 346 349 351 351 350 348 344 342 342 342 341 343 343 340 338 336 332 329 327 324 322 323 325 327 329 330 328 325 322 321 320 321 323 326 327 329 329 329 329 328 328 328 329 329 329 329 329 329 329 329 329 328 328 328 328 327 327 327 325
340 341 343 347 349 348 347 346 345 343 341 340 341 340 339 339 338 335 332 330 326 322 321 322 322 323 324 326 328 326 322 319 319 320 320 320 323 326 328 329 328 327 327 327 328 328 327 327 327 327 327 328 328 328 328 327 328 328 327 328 327 326 325
340 341 342 344 345 343 342 343 342 340 338 338 339 337 335 334 335 334 329 324 321 321 322 323 323 322 324 324 322 320 318 319 320 321 321 322 325 327 328 328 327 326 327 328 328 328 328 327 326 326 326 326 326 327 327 327 327 326 326 326 326 324 324
338 339 341 341 341 340 340 341 340 337 337 338 338 335 331 330 331 329 324 321 322 324 324 323 322 321 321 320 318 318 319 320 321 322 323 324 326 327 327 326 326 327 328 328 328 328 326 326 325 325 326 325 325 326 326 326 325 323 323 323 323 322 322

ECMWFFLT1_850_thetae_027.txt.gz
Theta_e
345 347 348 349 350 351 351 352 351 351 350 349 348 345 343 342 342 344 345 346 346 346 345 344 344 343 337 327 321 321 321 319 318 316 315 315 315 316 316 316 315 316 316 316 317 317 317 319 322 324 325 324 324 324 323 323 323 323 325 326 327 327 327
344 346 348 349 349 350 351 351 351 350 349 349 347 346 344 342 342 343 344 345 345 345 345 344 342 340 333 325 321 321 321 319 318 316 315 315 315 316 316 316 316 316 317 317 317 317 318 320 323 324 325 324 323 323 323 324 323 322 324 325 326 326 326
342 345 347 347 348 349 350 351 351 350 349 349 348 346 345 342 341 342 342 343 344 345 345 343 340 336 330 324 322 322 321 320 318 316 315 315 315 316 316 316 317 317 318 318 317 317 319 321 323 323 323 323 322 322 321 321 321 322 323 323 324 325 325
341 344 345 346 348 348 350 351 350 350 349 348 348 346 344 341 341 342 341 342 343 343 343 342 338 333 327 324 323 322 322 320 318 316 315 316 316 316 316 316 317 318 318 318 317 319 321 322 323 323 325 326 325 322 321 321 321 321 322 322 323 324 325
341 343 344 345 348 348 349 350 349 349 349 348 348 347 345 343 343 344 344 343 342 341 341 340 337 331 326 325 323 323 322 320 318 317 316 317 317 316 316 317 317 318 318 318 318 322 324 324 325 326 328 328 327 325 325 325 325 325 325 325 325 325 325
340 342 344 345 346 347 348 349 349 349 348 347 348 348 347 346 345 346 345 345 346 345 344 342 338 331 326 326 324 323 323 321 319 318 317 318 318 317 316 317 318 318 318 318 321 324 325 325 326 328 328 329 329 328 328 327 327 328 328 328 328 327 326
340 341 343 344 345 346 347 348 348 348 347 347 348 348 349 348 347 347 347 347 347 347 346 343 338 331 327 326 325 323 323 322 320 318 318 319 319 317 317 318 318 318 318 319 323 325 325 325 327 328 328 328 329 329 329 328 328 329 329 329 328 328 327
340 341 342 343 344 345 347 347 347 348 348 349 349 349 349 348 348 348 348 347 348 349 348 343 338 332 328 327 326 325 323 322 320 318 318 320 319 317 317 318 318 319 318 320 323 325 325 326 328 328 327 328 329 330 329 329 328 328 330 330 329 328 327
340 341 341 342 343 344 346 347 347 347 348 348 349 349 349 349 348 348 348 348 348 350 349 345 339 334 330 328 327 326 324 322 320 318 318 319 318 317 317 318 319 319 318 320 323 324 323 325 327 326 327 328 329 330 330 329 328 328 330 331 331 329 328
340 340 341 341 341 344 345 346 347 347 348 348 348 349 349 349 349 348 349 349 348 349 349 348 345 337 331 329 328 327 325 322 321 319 318 318 318 317 317 318 318 318 319 321 323 322 322 323 324 325 326 327 328 329 329 329 328 329 330 331 331 329 328
340 340 341 341 341 344 344 345 347 347 347 348 348 349 349 348 349 349 349 349 349 349 350 351 348 339 331 329 330 328 325 323 321 319 319 319 318 317 317 318 319 319 320 322 321 320 321 322 323 324 327 328 328 329 329 329 329 329 329 329 329 329 328
340 341 340 341 341 343 344 344 346 346 346 347 347 348 348 348 349 349 349 349 349 349 350 351 351 344 335 330 330 329 326 323 321 320 321 321 318 318 317 317 319 319 320 321 321 320 321 322 322 324 326 327 327 328 328 329 329 328 328 327 328 328 328
340 341 340 341 341 341 343 344 344 345 345 346 347 348 348 348 348 348 349 349 350 351 351 351 351 348 340 332 330 330 327 323 321 322 323 322 319 318 317 318 321 322 321 320 321 320 321 321 322 323 325 325 326 327 327 328 328 326 325 325 325 326 326
340 341 340 342 341 341 343 343 343 344 344 346 347 348 348 348 348 348 348 349 350 351 352 351 351 350 344 336 330 331 329 323 321 324 326 323 321 318 317 319 323 324 321 320 321 321 321 321 322 323 325 326 326 327 327 326 325 324 323 322 322 323 324
341 341 341 341 341 342 342 341 342 343 344 346 346 347 349 349 349 350 350 350 351 351 352 352 351 351 348 341 333 332 331 324 322 326 326 325 323 319 319 322 323 321 320 320 321 321 321 321 321 323 326 326 326 326 326 325 324 323 322 322 322 322 324
342 341 341 342 341 342 340 340 341 342 343 345 346 347 349 349 350 350 350 351 351 352 352 352 352 351 350 347 339 335 333 326 324 328 328 326 324 321 323 326 323 320 320 321 321 321 321 321 321 323 325 326 326 325 325 324 323 324 325 324 323 323 325
342 342 343 342 340 340 339 340 342 342 343 344 345 347 348 348 349 349 351 352 351 352 352 351 352 352 351 351 344 339 334 327 327 332 331 327 325 325 326 326 321 320 321 321 321 322 321 321 321 323 325 325 324 324 323 323 323 325 327 327 326 325 326
343 343 342 340 338 339 340 341 341 342 343 344 345 347 347 348 350 350 352 352 351 352 352 352 353 352 352 352 346 340 335 329 330 336 333 328 328 330 328 322 320 321 321 321 322 322 321 321 321 322 323 323 323 322 322 323 324 326 328 328 327 326 326
342 341 340 338 340 340 339 340 339 340 341 342 344 345 346 348 350 350 351 351 352 353 352 352 353 352 352 350 345 341 335 330 332 338 335 330 332 332 326 320 320 321 321 322 322 322 321 321 321 321 322 322 322 322 322 323 324 326 328 329 328 327 327
340 339 338 338 339 338 338 339 340 340 341 342 344 345 347 349 350 350 351 352 353 353 353 353 352 350 349 347 345 343 338 332 332 337 336 333 332 329 323 321 321 321 322 322 322 321 321 321 321 321 322 322 322 322 322 323 325 327 328 329 328 327 327
337 337 336 337 337 337 338 339 340 341 342 343 344 345 348 350 351 351 352 353 353 353 353 353 351 350 349 348 346 344 341 337 335 336 336 334 331 327 323 322 323 321 322 322 321 322 321 321 321 321 321 322 323 323 323 323 324 326 328 329 328 327 327
335 335 335 336 336 337 339 340 341 342 343 344 346 346 347 348 349 351 352 353 354 354 354 352 351 350 349 348 346 344 343 340 336 335 337 335 332 328 324 324 324 323 322 322 321 322 321 321 321 321 321 322 324 324 324 324 324 325 326 328 329 328 328
336 335 335 336 336 336 337 336 337 337 339 342 345 348 350 349 348 350 352 353 354 354 353 351 349 347 346 347 346 344 343 341 337 336 338 336 332 329 326 326 327 326 324 322 322 322 321 321 321 321 322 322 323 324 325 325 325 325 326 328 329 329 329
334 334 333 334 334 334 334 333 334 335 336 338 342 347 351 351 350 350 351 352 353 352 349 347 346 346 345 346 345 343 341 340 338 337 338 335 332 331 331 330 330 328 324 323 323 323 322 322 322 322 322 322 323 325 326 327 327 326 326 327 329 329 330
333 334 333 333 333 333 334 335 335 336 337 339 340 344 347 350 351 351 351 351 351 351 350 348 347 346 345 344 345 343 340 340 340 338 336 334 331 333 334 333 331 329 327 328 330 329 327 325 325 324 323 322 323 324 325 326 327 326 327 327 328 329 329
334 334 334 333 334 335 335 335 335 337 339 339 339 341 344 347 350 350 350 351 351 351 351 349 348 347 345 343 343 343 341 340 340 339 337 335 333 333 335 334 333 333 334 335 336 335 334 333 332 330 328 327 326 326 325 325 326 327 328 328 329 330 329
334 334 334 334 335 335 335 336 338 340 341 339 338 340 343 346 348 350 351 351 351 350 349 348 347 346 345 342 341 341 342 341 339 339 337 335 333 334 335 335 335 336 337 338 338 338 338 338 337 335 333 332 332 331 331 330 330 330 329 327 328 330 329
334 335 336 336 337 337 338 340 340 340 339 338 337 340 343 347 349 350 351 351 351 350 348 346 345 344 344 341 340 340 341 340 338 337 336 335 335 335 336 337 337 338 339 339 340 340 340 340 339 337 335 334 334 334 334 334 334 334 331 327 327 329 329
336 337 338 338 339 340 340 341 340 339 339 340 341 343 346 348 349 351 352 352 351 348 345 344 343 342 341 340 338 339 338 337 336 337 336 336 335 336 338 339 339 340 340 340 341 341 340 338 337 336 335 333 333 333 333 334 334 334 331 328 327 328 328
338 339 340 340 339 339 340 341 342 343 343 343 344 345 347 348 350 351 351 350 348 346 344 342 341 340 338 338 337 336 334 333 336 337 336 337 338 339 339 340 340 340 339 339 340 340 338 334 333 333 333 333 333 333 333 333 333 332 331 329 328 327 327
339 340 341 340 340 340 342 346 347 346 345 344 344 347 349 350 351 351 350 347 345 343 342 339 338 337 337 336 335 333 332 334 336 336 337 338 338 338 337 338 338 338 339 340 340 339 335 331 329 331 332 333 333 333 333 333 333 332 331 329 326 326 327
339 340 340 342 344 347 348 349 349 346 346 347 347 349 351 352 352 351 348 345 343 341 340 337 336 337 337 335 334 333 334 334 331 329 332 334 334 335 336 338 338 337 339 340 338 335 332 329 328 329 330 331 331 331 331 332 332 331 329 327 327 327 328
338 339 339 342 348 350 350 350 348 346 347 348 349 350 352 353 353 350 346 344 343 341 340 338 337 338 337 336 337 337 334 330 328 330 331 330 331 333 334 336 336 336 336 336 333 331 329 328 328 329 329 330 330 330 329 329 329 329 329 329 329 329 329
336 337 338 342 346 348 349 349 348 347 348 349 349 350 350 351 351 348 346 344 342 340 339 339 338 338 337 336 337 336 334 334 335 334 331 329 328 328 328 331 332 332 332 331 330 329 329 328 328 328 328 329 329 329 328 328 327 328 329 329 328 328 328
335 337 338 341 343 345 347 348 349 350 351 350 349 348 346 346 346 346 345 343 340 338 337 336 334 334 335 334 330 329 332 336 333 327 322 323 323 323 324 327 328 329 330 330 329 329 328 327 327 327 328 328 328 328 328 327 327 328 328 328 327 326 327
331 334 337 339 341 343 346 349 351 352 351 350 348 346 343 343 344 344 342 339 336 332 329 328 327 328 330 329 325 324 330 333 329 323 320 319 321 323 326 328 328 329 330 329 328 327 326 325 326 327 327 327 327 327 327 326 326 326 326 327 327 326 327
330 331 333 337 339 342 344 346 348 348 348 347 345 343 343 342 342 340 337 335 333 329 329 330 329 327 327 326 324 327 330 330 329 327 323 322 324 327 329 330 330 329 328 326 325 325 325 326 327 327 327 326 326 326 326 325 325 325 325 326 325 326 327
331 330 331 334 338 340 341 341 342 343 344 344 343 342 342 339 337 335 332 329 327 326 328 329 326 324 325 326 328 334 336 334 331 329 325 325 328 329 329 330 329 327 325 324 324 325 325 327 327 326 325 324 324 324 325 324 324 324 325 324 324 324 325

ECMWFFLT1_850_thetae_030.txt.gz
Theta_e
343 345 345 346 346 346 346 347 347 348 348 348 348 348 348 348 348 348 348 350 351 347 343 341 341 341 342 342 343 344 342 339 334 326 320 318 318 317 317 316 316 315 315 315 316 316 317 317 317 317 320 323 325 325 324 324 324 323 323 323 324 326 326
343 344 345 345 347 346 347 347 347 347 348 348 348 348 349 348 348 349 349 351 350 345 341 341 340 341 342 342 343 343 342 338 332 324 320 318 317 316 316 315 315 315 315 315 316 316 316 316 316 317 320 323 324 324 323 323 323 323 323 323 323 324 324
341 344 345 346 347 346 347 347 347 348 347 348 348 348 349 349 348 349 350 351 349 343 341 340 340 341 342 343 343 343 342 337 328 321 319 318 316 315 315 315 316 316 315 316 316 316 316 316 316 318 320 322 323 322 322 322 321 321 321 321 322 323 323
340 343 344 345 346 346 347 347 347 348 347 347 347 347 348 347 347 348 349 350 347 343 341 339 339 341 342 343 342 342 340 333 324 319 319 318 316 315 315 315 316 316 316 316 317 317 317 317 317 318 320 321 322 323 322 320 319 319 320 320 321 322 322
339 342 343 344 346 346 347 348 347 348 348 348 347 346 347 346 347 348 349 349 346 342 341 339 340 342 343 343 342 341 337 328 321 320 319 317 316 315 315 315 316 316 316 317 317 317 317 318 319 319 319 321 324 324 322 321 322 324 324 325 325 325 325
339 341 342 344 345 346 347 348 348 348 348 347 346 345 347 348 347 347 347 347 344 342 341 341 341 342 343 344 343 342 340 331 321 320 320 317 316 315 315 315 316 316 317 317 317 317 318 320 321 321 321 324 326 326 324 325 326 327 327 327 328 328 328
338 340 341 342 344 345 346 347 348 348 348 348 347 346 347 349 348 346 346 346 343 342 341 341 341 342 343 344 344 343 343 336 325 320 321 320 317 316 315 316 316 317 318 318 318 318 318 321 322 322 325 327 327 327 327 328 327 328 328 328 328 329 329
338 339 340 341 342 343 345 346 347 348 348 349 349 348 348 348 348 347 346 346 344 342 341 340 340 341 343 344 344 340 338 333 325 321 322 321 319 317 316 316 316 317 318 318 318 318 319 321 323 324 327 327 327 328 328 328 328 328 328 328 329 329 330
338 339 339 340 341 342 343 345 346 347 348 349 349 348 346 347 348 347 346 346 345 342 340 340 341 341 343 344 344 342 337 330 324 322 323 322 320 317 316 316 316 317 318 318 318 318 319 322 324 326 327 327 327 327 327 327 328 328 328 328 328 329 329
338 338 339 339 340 342 342 344 346 346 348 348 348 348 347 347 348 347 347 347 346 344 341 340 342 343 343 344 344 344 342 333 324 322 323 323 321 318 316 317 317 317 318 318 318 318 319 323 325 327 327 327 326 327 326 327 327 328 328 328 328 328 328
338 338 339 339 340 341 342 343 345 345 346 347 346 346 346 347 348 348 347 347 346 346 343 342 344 344 344 346 345 344 343 335 326 323 323 323 321 319 317 317 317 317 318 318 318 318 320 323 325 326 326 325 325 326 326 327 328 328 328 328 329 328 328
338 339 338 339 339 341 342 343 344 344 345 345 345 346 346 347 348 348 347 347 347 348 346 345 345 345 346 347 346 347 344 335 326 323 324 324 322 319 317 317 317 317 318 318 318 319 321 323 324 324 324 323 324 326 327 328 328 328 328 329 329 329 328
338 339 338 339 339 340 342 342 343 344 344 345 345 345 346 346 347 347 347 347 348 348 349 348 346 346 346 347 348 347 344 340 335 328 324 325 323 319 318 317 316 318 321 321 319 319 321 322 321 321 321 322 323 326 327 327 327 327 328 328 329 328 327
338 338 338 339 339 339 341 341 342 343 343 344 345 345 346 346 346 347 347 347 348 349 351 351 349 348 347 347 350 349 347 347 344 333 327 326 324 320 318 317 317 320 323 324 321 319 320 321 321 320 321 322 323 325 325 325 325 326 327 328 328 326 324
338 339 338 339 339 339 340 340 341 342 342 343 344 344 345 346 346 347 347 348 349 350 351 351 351 350 349 350 351 348 346 346 340 330 328 327 323 321 320 317 317 321 324 324 321 320 320 320 321 320 321 322 323 323 324 323 323 324 325 326 326 324 323
338 339 339 339 340 339 339 340 340 341 341 342 342 343 344 344 346 346 346 347 349 349 351 351 351 352 351 349 346 344 346 344 334 327 328 324 320 321 321 318 318 321 325 325 322 320 320 321 321 321 321 321 322 322 322 322 322 323 324 324 324 323 323
338 339 339 340 340 340 340 340 340 340 340 341 340 341 342 343 344 345 346 347 347 349 350 350 352 352 349 346 345 346 347 343 333 328 327 322 321 324 322 318 318 322 326 326 322 320 320 321 321 321 321 321 321 321 321 322 322 322 323 323 323 323 323
339 338 339 339 340 340 340 339 339 339 338 339 340 340 340 342 343 344 345 345 346 348 350 351 352 351 349 348 348 348 347 342 333 329 328 324 322 325 323 319 319 323 326 325 322 320 320 321 322 321 321 321 321 321 321 321 322 322 323 323 323 323 324
338 339 340 340 340 340 339 338 337 337 338 338 339 339 339 341 342 343 343 344 346 348 351 352 352 351 350 349 348 346 345 342 334 329 328 325 325 328 325 320 320 324 327 324 322 321 320 321 322 321 321 322 321 321 321 321 322 323 323 323 323 324 326
339 340 340 340 340 339 339 338 338 338 338 338 338 338 339 341 342 342 344 345 347 349 351 351 351 351 350 349 347 345 345 343 336 331 327 325 326 327 325 321 321 325 327 325 322 321 320 321 321 321 322 322 321 321 321 321 322 323 324 323 323 325 327
340 340 339 340 339 339 339 338 337 337 337 337 338 339 341 342 342 344 346 347 349 350 351 351 351 351 350 349 348 346 345 344 341 338 332 325 325 327 327 326 324 326 329 326 321 320 321 321 321 322 322 322 322 321 321 321 322 323 324 324 325 326 327
339 339 338 338 339 338 338 337 337 338 338 339 340 341 342 343 344 346 347 349 350 351 352 351 351 351 350 349 349 348 347 345 344 343 336 327 326 328 328 327 328 329 330 326 321 320 321 320 321 322 322 323 322 322 322 321 321 323 323 325 326 327 327
337 337 338 338 339 339 339 338 338 338 337 337 336 336 338 341 344 347 348 349 351 352 352 352 351 351 351 351 351 349 349 347 345 343 337 329 328 330 328 329 332 331 329 326 322 321 321 322 323 324 326 327 327 327 326 324 322 323 324 325 327 328 328
338 339 338 338 338 338 337 336 335 334 333 333 333 333 334 336 341 346 348 349 351 352 352 352 352 352 352 352 351 349 348 346 344 342 336 330 330 333 331 331 333 331 329 328 326 323 324 326 327 329 331 331 330 330 329 326 324 324 325 326 327 328 329
338 338 337 337 336 334 334 333 334 333 334 334 334 334 333 334 338 342 346 348 350 351 352 352 352 352 352 352 351 350 348 346 344 343 337 332 331 334 333 332 332 331 331 332 330 327 327 329 330 332 333 333 332 331 330 329 327 327 327 328 328 328 329
334 336 335 333 333 333 333 334 334 335 336 335 335 335 333 334 336 339 343 347 349 350 350 350 351 351 352 351 350 350 348 346 345 343 338 332 332 334 334 332 332 332 332 333 333 331 331 332 333 335 335 335 335 334 334 333 333 332 332 332 332 332 331
334 335 334 332 334 334 334 335 334 334 336 337 337 335 333 334 335 337 342 345 347 348 349 350 350 350 351 350 349 349 348 345 345 343 338 333 333 335 335 333 332 333 334 334 334 334 335 336 337 337 338 339 339 338 337 336 335 334 334 333 333 334 334
333 334 333 333 335 334 334 335 335 336 338 338 338 336 334 334 335 337 341 342 344 347 348 349 350 349 349 349 348 348 346 344 344 344 340 336 334 335 335 333 332 333 335 336 336 337 338 339 339 339 340 340 338 337 336 336 335 334 333 333 333 333 333
336 337 336 338 338 337 336 338 339 341 341 340 338 337 335 335 337 338 340 341 344 348 349 349 348 348 348 347 347 346 344 342 344 343 340 338 338 338 337 334 332 334 336 338 338 339 339 339 339 339 338 337 335 333 332 332 332 332 333 333 333 333 332
340 340 338 339 339 337 336 337 339 342 342 338 337 337 337 339 341 342 343 345 348 349 349 349 348 347 346 346 346 345 343 341 341 340 339 339 339 339 338 335 333 335 338 339 339 339 338 338 337 336 335 333 331 329 329 329 329 331 333 333 332 332 331
338 338 337 336 337 338 337 337 340 342 342 339 339 340 342 343 344 345 346 348 350 350 350 348 347 345 344 344 343 343 341 340 339 339 339 340 339 338 336 334 335 338 340 339 337 335 334 334 334 332 331 330 329 327 327 327 328 330 331 331 331 331 329
334 336 337 337 338 339 339 339 340 341 342 341 342 344 345 345 345 345 346 349 350 349 348 346 345 343 342 341 341 341 340 339 338 338 339 339 338 336 335 336 339 340 337 333 330 328 327 328 329 329 329 329 328 327 327 327 327 327 328 328 329 329 328
329 331 334 337 339 341 340 341 342 341 342 344 345 346 346 346 346 346 348 350 349 346 345 343 341 340 339 340 339 338 338 337 336 336 336 336 335 335 337 340 342 339 331 324 322 323 323 325 326 328 329 328 328 328 328 327 326 326 327 327 328 328 328
327 327 328 330 334 338 341 344 344 343 344 346 348 348 348 347 347 348 350 349 346 343 342 341 339 338 337 338 337 336 336 335 334 332 332 332 334 337 340 342 339 332 324 320 320 321 323 325 327 328 329 328 328 328 327 327 326 327 327 327 327 327 327
328 327 326 327 328 331 336 340 341 343 347 349 350 350 349 348 347 347 348 346 343 341 340 339 338 336 336 336 336 335 334 333 332 331 332 335 340 342 342 341 337 328 323 322 322 323 324 325 327 328 328 328 328 328 327 326 326 326 325 325 325 325 326
329 328 328 329 329 331 335 338 340 344 347 349 350 349 348 346 344 345 345 344 342 340 339 338 337 335 335 336 336 335 336 336 337 338 339 339 340 338 334 332 329 325 323 323 324 324 325 325 327 327 328 328 327 327 327 326 325 324 324 324 323 323 324
329 329 328 327 327 331 336 338 339 341 344 346 347 347 346 344 342 344 344 342 340 339 338 338 337 336 336 335 332 332 334 334 335 337 335 330 328 326 322 320 322 323 325 325 325 325 325 326 327 327 327 327 327 327 325 324 323 322 322 322 323 323 324
330 329 329 328 330 333 337 338 339 339 340 342 344 344 344 342 342 343 342 340 337 335 334 335 335 334 333 330 325 324 326 325 324 326 325 322 322 322 321 321 323 326 327 327 325 325 325 325 326 327 327 327 327 325 324 323 323 323 323 323 323 323 323

ECMWFFLT1_850_thetae_033.txt.gz
Theta_e
344 345 344 344 343 343 343 343 344 343 344 344 344 345 346 346 346 346 346 346 347 347 346 346 347 347 347 347 345 343 341 341 341 341 341 342 340 333 327 322 318 317 316 316 315 315 315 315 316 316 316 316 316 319 323 324 324 324 324 324 324 325 326
344 345 345 344 343 343 344 343 344 344 344 344 344 345 346 346 346 346 346 346 347 347 347 347 347 347 348 347 343 341 340 341 342 341 342 342 337 330 324 320 317 316 316 315 315 315 315 315 316 316 316 316 316 319 322 324 324 323 323 323 323 324 324
343 344 344 343 343 343 344 344 344 344 344 344 345 345 346 346 345 346 346 346 347 347 347 347 347 348 349 347 342 339 340 340 341 342 342 341 335 328 323 319 317 316 315 315 315 315 315 315 316 316 316 316 317 319 322 323 323 323 323 323 323 323 323
342 342 342 342 343 343 343 344 344 344 344 344 345 345 345 346 345 345 346 346 346 347 347 347 348 348 349 347 342 339 339 340 341 342 342 339 334 330 325 319 317 316 314 315 315 315 315 316 316 317 317 316 317 319 321 322 322 322 321 320 320 320 321
340 340 341 341 343 343 343 344 344 344 344 344 344 345 345 345 345 346 346 346 346 346 347 347 347 348 349 348 343 339 339 340 340 342 342 338 335 333 326 319 317 315 314 315 316 315 316 316 317 317 317 317 318 319 320 322 322 321 320 319 321 322 323
339 339 341 340 341 342 343 344 344 344 344 344 344 344 345 345 345 345 345 345 346 346 346 347 347 348 349 348 344 340 340 340 341 342 341 338 336 332 324 318 317 315 315 316 316 316 316 317 317 317 318 318 318 318 321 322 321 321 322 324 325 326 327
338 339 339 340 340 341 342 343 343 344 344 344 345 344 345 346 346 346 345 344 345 345 346 347 347 348 349 348 345 341 340 341 342 343 342 340 338 330 321 318 317 314 315 316 316 316 317 317 317 318 319 320 319 320 322 324 322 323 325 326 326 327 327
337 339 338 339 340 339 342 342 343 344 345 345 346 345 346 346 346 346 346 345 344 345 346 346 346 346 348 348 345 342 341 341 342 344 344 344 342 332 321 319 317 314 315 316 316 317 317 317 317 318 321 321 321 322 324 324 324 325 327 327 327 328 328
337 338 337 339 339 339 341 341 343 344 344 345 345 345 346 346 345 346 346 345 345 345 345 344 344 345 346 348 347 344 341 341 344 347 346 347 343 331 321 320 317 315 315 316 316 317 317 318 318 319 321 321 322 324 324 325 325 326 327 327 328 328 328
335 337 337 339 339 340 341 342 343 343 344 344 345 345 346 346 346 346 345 346 345 345 345 344 345 344 344 348 349 346 346 348 350 350 349 348 339 324 319 320 318 316 316 316 317 317 317 318 317 319 321 322 323 324 324 325 325 326 326 327 327 328 328
335 335 336 338 339 339 341 341 342 343 343 344 344 345 346 345 346 346 346 346 345 345 345 345 346 344 343 348 350 351 351 351 351 348 348 348 338 322 319 321 318 317 317 316 317 317 317 318 318 319 321 321 322 323 324 325 325 326 327 327 328 328 328
335 336 336 337 338 339 340 341 342 343 344 344 344 345 345 345 346 346 346 346 346 346 346 346 347 345 345 351 353 353 351 347 344 343 345 347 338 324 320 321 319 319 318 316 317 317 317 318 318 319 320 321 322 323 324 325 326 327 328 328 329 329 329
335 336 336 337 338 339 340 341 342 343 343 344 344 344 345 345 346 346 346 347 347 347 348 348 349 349 351 354 354 352 348 342 340 341 343 345 336 324 321 322 321 321 318 317 319 318 318 318 318 319 320 321 322 323 324 325 326 328 328 328 328 328 328
336 336 336 337 338 338 340 340 341 342 343 343 344 344 345 345 346 346 346 347 348 349 349 349 350 352 353 353 352 350 349 346 342 339 342 345 337 324 322 323 322 321 319 318 320 321 320 319 318 319 321 321 323 323 323 325 326 327 327 327 327 326 326
336 337 336 337 337 338 339 339 341 341 341 342 342 343 344 344 345 346 346 347 348 348 349 350 350 352 352 353 353 352 351 349 346 343 345 346 336 324 321 321 321 321 319 318 322 324 322 320 319 319 321 322 322 323 323 324 324 325 326 326 325 325 324
337 337 337 337 338 338 338 339 340 340 340 341 341 342 343 343 344 344 345 346 347 348 349 349 350 351 352 353 353 352 351 351 350 349 349 347 336 325 322 322 321 321 319 318 323 325 324 322 321 319 321 321 321 322 322 323 322 323 324 324 323 323 323
338 338 337 337 338 338 338 338 339 339 339 340 340 341 341 342 342 343 344 345 346 347 348 348 349 351 352 352 352 352 352 351 350 350 349 347 339 329 324 323 322 321 319 318 322 326 326 324 321 320 321 321 321 321 322 321 321 322 322 323 322 323 323
338 338 338 337 338 338 338 338 339 339 340 340 340 340 340 341 342 342 343 344 345 346 347 348 349 350 351 352 352 352 352 350 350 350 348 348 344 333 325 324 322 320 319 318 321 326 327 324 321 320 321 321 320 321 321 321 321 321 321 322 322 323 323
338 338 338 338 338 338 339 339 339 339 339 338 338 338 338 340 341 341 342 344 344 345 346 348 349 350 351 352 352 352 352 351 350 350 348 348 344 333 325 325 322 320 320 319 321 325 326 325 323 321 321 320 320 320 321 321 321 321 321 322 323 325 325
338 338 338 338 338 339 339 339 339 339 338 337 337 337 338 339 340 341 342 343 344 345 346 347 348 349 350 351 351 352 352 351 350 350 349 349 345 333 326 326 323 320 320 319 320 325 326 324 323 322 322 321 320 320 321 321 322 322 321 322 325 328 329
339 339 339 338 339 339 339 339 339 338 336 336 336 338 339 340 340 341 342 343 344 345 346 347 348 349 349 350 351 351 351 350 350 350 350 349 345 334 327 327 324 321 321 320 320 324 325 324 324 324 324 323 321 320 321 321 321 322 322 322 326 329 331
338 338 338 339 338 339 339 339 339 337 336 338 339 340 341 341 342 343 343 344 345 345 347 347 348 349 349 350 351 351 351 350 350 350 349 348 346 339 331 329 325 322 322 320 320 323 324 324 324 325 325 325 322 320 321 321 321 322 323 324 327 331 332
338 338 339 339 339 339 339 339 340 339 339 340 339 338 339 339 341 342 343 345 346 347 348 348 349 349 350 350 350 350 350 350 349 349 348 348 347 344 339 335 329 324 323 322 321 323 325 325 325 326 327 325 321 321 322 322 322 325 328 328 330 332 332
338 338 339 339 339 340 340 339 339 338 337 336 334 333 334 334 336 338 340 343 345 346 347 348 349 350 350 350 351 350 350 350 349 349 349 348 347 345 343 338 331 325 324 323 323 323 325 326 326 328 328 324 322 325 327 326 327 330 332 331 329 329 330
339 339 340 340 339 339 338 336 336 334 334 334 333 332 332 333 334 335 337 340 342 344 346 347 348 349 350 351 351 350 350 349 349 349 348 347 346 345 343 337 329 326 326 324 323 322 322 325 328 330 329 327 326 329 331 331 333 334 334 332 330 329 330
339 338 338 337 335 335 334 333 333 334 334 334 332 332 331 332 332 333 334 337 340 342 344 346 348 349 350 350 351 350 350 349 349 349 348 347 345 343 342 336 328 326 327 323 322 323 325 330 332 332 332 332 331 331 332 334 336 337 336 334 333 333 333
338 336 334 334 334 334 334 334 334 334 334 335 334 334 333 333 333 333 333 335 337 340 344 347 348 349 350 351 350 350 350 349 349 348 348 347 343 341 341 337 329 326 325 324 324 328 331 333 334 333 334 334 333 333 335 337 338 338 337 336 335 335 334
335 334 333 333 334 334 334 334 335 335 336 337 337 337 335 334 334 334 334 335 338 342 345 347 348 349 349 350 350 350 349 349 348 348 346 345 343 341 340 338 332 327 325 327 329 332 333 333 333 334 334 334 335 337 338 339 338 337 336 335 334 333 333
336 336 336 336 336 336 336 336 336 337 338 338 338 337 335 335 336 336 336 338 342 344 346 347 348 348 348 349 349 349 349 348 348 348 345 344 343 341 338 335 332 328 328 331 332 332 332 333 334 335 336 337 338 339 339 338 337 335 334 332 331 331 332
342 341 341 341 341 341 339 339 339 339 338 337 337 337 336 337 338 337 338 341 343 345 347 348 348 348 347 348 348 348 348 348 348 347 345 344 344 341 337 333 330 330 331 332 332 332 333 334 335 337 338 339 339 339 338 337 335 333 331 330 329 329 331
339 340 340 340 340 340 339 340 339 338 337 338 338 338 338 339 339 339 340 341 342 344 348 349 348 347 347 346 346 346 347 347 347 346 345 344 343 342 338 333 331 332 333 333 333 334 334 335 336 338 339 339 339 338 336 334 332 330 328 328 328 328 328
330 333 335 336 336 337 337 338 338 337 338 338 338 338 339 341 342 341 340 340 340 344 348 349 348 347 346 345 345 345 345 345 346 345 343 342 343 343 339 334 333 333 333 334 336 336 336 337 338 339 339 338 337 335 332 330 328 328 328 327 327 327 326
325 326 328 328 329 331 330 329 329 333 335 336 337 339 341 341 341 339 339 340 343 346 348 347 346 345 344 343 343 343 343 344 344 343 341 341 343 342 339 337 337 336 335 336 337 337 338 338 338 338 338 336 333 330 329 327 327 327 327 326 326 326 326
326 325 325 326 327 328 328 327 329 332 333 334 337 341 341 340 339 338 339 340 343 346 347 345 343 342 342 341 341 341 341 342 342 341 340 340 340 340 339 339 339 338 337 337 337 339 338 335 333 335 336 333 330 328 327 326 326 326 325 325 326 325 324
326 324 324 325 326 326 327 330 333 336 337 339 341 343 342 342 341 341 341 341 341 344 344 343 341 340 339 339 339 339 339 340 339 339 339 338 338 338 338 337 337 337 337 337 337 335 331 326 328 333 333 330 327 326 325 324 324 324 324 325 324 323 322
327 326 326 327 328 329 330 334 337 339 340 342 344 344 343 343 343 343 342 341 342 343 343 342 341 338 336 338 339 338 338 338 337 336 336 336 336 336 336 337 337 335 334 332 330 327 324 324 328 331 330 327 326 324 322 322 323 324 324 324 322 322 322
328 329 330 330 332 335 336 337 339 340 341 342 343 342 341 342 342 341 341 341 342 343 342 341 339 337 336 337 337 336 335 335 334 334 334 336 337 336 336 334 331 328 326 327 327 327 327 328 329 328 326 325 324 322 321 322 323 324 324 323 322 322 322
331 331 332 332 334 336 337 337 338 338 338 339 338 339 339 340 340 341 340 340 342 342 341 339 337 336 335 336 335 335 335 335 336 336 337 336 335 331 328 324 322 322 324 326 327 329 330 329 328 326 324 323 322 322 323 323 324 324 324 323 323 323 322

ECMWFFLT1_850_thetae_036.txt.gz
Theta_e
351 351 351 351 352 352 352 351 350 349 346 344 343 343 344 344 344 344 344 345 345 345 345 345 346 346 346 346 346 347 347 346 347 347 347 347 347 347 346 344 344 346 344 338 332 329 327 329 329 325 322 318 317 317 317 324 331 330 328 327 326 327 327
351 350 351 351 352 352 351 348 345 345 344 342 343 343 343 344 344 344 344 345 344 345 345 345 346 346 346 346 346 347 347 347 347 346 347 347 346 345 344 342 344 344 340 336 333 331 328 328 326 321 319 317 317 318 317 322 327 326 326 325 324 325 325
349 350 350 351 352 352 350 346 343 343 342 342 343 343 343 343 344 344 344 345 345 345 345 345 346 346 346 346 346 346 347 347 347 346 346 345 344 343 342 342 343 342 339 336 333 330 327 326 323 318 317 316 317 318 317 318 321 322 324 324 323 323 323
349 350 350 351 352 352 350 346 343 342 342 342 342 342 343 343 343 344 344 345 345 345 345 345 346 346 346 347 346 346 347 347 348 347 346 345 343 342 341 342 341 341 338 331 326 325 324 322 320 317 316 316 317 317 316 317 319 321 322 322 323 324 322
348 349 350 351 352 352 353 349 345 342 342 343 343 342 342 342 343 344 343 345 345 344 344 344 345 346 346 347 347 347 347 347 347 348 347 345 343 341 341 342 341 339 334 326 320 319 319 318 318 316 315 316 316 317 317 317 318 320 321 321 322 324 327
349 350 350 351 351 352 351 347 345 343 342 343 343 342 342 342 343 343 343 344 344 345 345 345 345 346 346 347 347 347 347 347 348 348 348 346 342 341 342 343 341 336 329 322 317 316 315 316 316 316 316 316 317 318 318 318 320 321 321 320 321 324 331
349 351 351 350 351 351 349 347 347 348 347 345 344 343 342 342 343 343 343 344 344 345 345 345 345 346 345 346 347 347 347 347 348 348 348 346 342 341 342 343 340 332 324 319 316 315 315 315 316 316 316 317 317 318 320 321 321 322 322 321 321 324 329
348 351 351 350 350 351 352 351 350 352 352 350 348 347 344 344 345 344 343 344 344 344 345 345 345 345 346 346 347 347 347 347 348 348 349 347 343 341 342 343 340 330 321 317 316 315 315 315 316 316 317 317 317 318 320 320 320 322 323 322 323 327 329
348 350 351 350 349 349 351 353 352 352 354 352 351 350 347 347 349 347 344 344 344 344 345 345 346 345 346 346 346 346 347 347 348 348 349 346 342 342 342 343 341 330 319 317 317 315 316 316 316 316 317 317 317 318 320 320 321 323 325 325 325 327 329
348 350 351 350 349 347 349 352 353 350 350 351 351 352 350 347 348 348 346 346 346 345 344 345 350 349 346 345 345 345 345 347 348 348 348 343 340 342 343 344 343 332 320 318 317 316 316 316 316 317 317 317 317 319 320 321 322 324 325 326 325 326 328
347 349 351 349 347 348 349 352 353 348 347 349 348 350 349 347 348 347 346 347 348 347 346 349 354 354 347 343 344 344 344 347 347 348 349 343 338 341 343 345 345 333 322 318 317 318 318 317 316 317 317 317 318 318 321 321 323 325 325 325 325 326 328
349 348 348 346 346 349 351 353 353 348 346 347 347 347 347 346 347 347 345 345 346 350 353 355 358 356 348 343 344 343 343 345 346 347 348 343 337 340 344 345 343 331 321 319 318 320 323 319 316 317 317 317 318 318 320 322 323 324 325 325 326 327 329
349 348 344 342 345 350 352 352 351 347 345 345 345 345 344 343 345 345 344 344 347 354 358 359 359 357 351 346 345 346 345 345 345 345 342 337 335 339 343 345 343 331 321 321 319 319 322 320 317 317 318 317 318 318 320 322 323 324 324 325 327 328 329
348 348 346 343 342 346 351 351 348 346 345 344 343 343 343 343 344 344 345 346 350 356 359 360 360 357 354 351 350 353 353 348 345 343 339 335 334 337 340 343 345 337 325 321 320 319 320 320 318 318 318 317 318 318 319 322 323 324 325 326 327 328 328
349 350 349 344 338 340 347 349 347 346 346 345 343 342 342 343 344 345 346 348 351 355 359 361 359 357 356 355 353 355 355 352 346 345 343 339 335 335 337 340 343 343 333 323 320 320 320 319 318 320 320 318 318 318 319 321 323 324 325 326 327 328 329
350 349 349 345 339 337 340 344 345 345 346 344 341 341 342 342 343 343 345 346 348 351 357 359 358 356 356 355 353 353 353 351 349 349 349 346 340 336 337 339 343 345 339 328 321 320 320 318 319 321 321 319 318 318 318 320 322 323 324 326 328 329 330
349 349 349 346 342 338 337 342 345 345 344 341 338 340 341 340 342 342 344 346 346 348 354 355 354 356 356 355 353 353 352 351 351 351 351 350 347 341 338 339 344 346 341 331 323 321 319 318 320 321 322 321 319 318 319 320 322 323 323 325 328 329 329
349 349 349 346 343 340 338 340 342 341 340 339 338 340 340 340 342 342 342 345 346 349 353 354 353 353 353 353 353 353 351 350 351 350 351 352 351 348 342 338 341 346 343 334 325 322 319 319 321 323 323 322 320 319 319 320 321 322 322 324 327 329 328
350 350 349 345 342 340 339 341 343 343 340 339 339 339 340 341 341 341 342 343 346 349 352 353 352 350 350 354 354 352 348 349 351 349 350 351 352 351 348 341 340 344 345 337 327 323 320 319 323 325 324 323 321 320 320 320 321 321 321 323 326 328 327
350 351 352 349 347 345 345 349 350 346 340 338 339 340 340 341 340 341 342 342 344 347 349 350 349 348 352 355 354 350 347 349 350 349 349 351 352 352 351 346 342 344 346 340 328 323 321 319 323 327 326 325 323 321 320 321 321 321 320 321 323 325 326
351 352 352 352 352 350 348 348 346 344 339 338 340 340 340 341 341 341 341 342 343 344 345 346 345 348 353 354 350 347 348 349 349 349 349 350 351 352 352 349 345 345 347 339 326 322 322 319 321 325 326 325 324 322 322 322 322 322 321 321 322 323 325
349 351 352 352 349 347 346 342 340 340 338 338 340 340 340 340 341 341 342 342 343 343 344 345 345 348 350 350 347 348 349 349 349 350 350 351 352 351 351 350 348 347 348 340 326 321 322 320 321 324 324 325 324 323 323 323 324 325 324 321 322 324 326
344 348 350 346 342 342 342 339 338 338 339 339 339 339 340 340 340 342 342 342 343 343 343 344 345 346 347 347 347 349 349 348 349 351 351 351 352 352 351 351 349 349 349 341 326 321 322 321 322 323 322 323 324 324 324 325 327 327 324 322 325 328 329
342 345 347 344 343 344 341 338 339 339 338 339 339 339 340 341 341 342 342 343 343 343 344 345 346 346 347 347 348 349 350 350 350 351 351 351 352 352 351 351 349 349 349 340 327 324 326 323 321 322 321 320 323 323 322 325 330 329 325 325 329 332 333
344 347 349 347 346 345 341 338 339 339 338 339 340 341 341 340 339 338 338 338 340 341 344 345 346 347 348 348 349 350 351 351 351 351 351 351 352 352 351 350 348 348 349 342 329 325 328 326 323 322 321 321 325 327 325 327 331 332 329 329 333 335 336
348 349 349 347 344 341 339 339 339 339 340 341 340 339 337 335 334 332 332 334 336 339 342 344 346 348 348 348 351 352 352 351 351 351 351 351 351 351 349 348 347 347 347 341 330 325 328 331 329 327 324 324 328 331 332 333 333 333 333 333 335 337 337
348 349 350 349 345 340 338 340 340 339 339 337 335 334 333 331 331 330 331 333 336 339 343 346 347 348 349 351 352 352 352 351 350 351 351 350 350 350 348 347 347 346 343 339 334 329 330 331 331 327 324 323 324 328 333 336 336 335 336 336 336 337 337
354 355 354 348 343 341 341 341 339 336 335 333 332 332 332 332 331 331 332 334 337 340 343 345 347 348 350 352 353 352 351 351 350 350 350 349 349 348 347 347 346 345 343 341 338 337 335 332 328 325 324 325 327 330 334 336 336 336 336 337 338 338 338
356 353 349 345 345 346 344 339 337 336 336 336 335 334 333 332 332 332 333 334 336 338 339 342 344 345 348 351 351 351 351 350 350 350 349 349 348 347 348 348 346 344 343 341 341 340 337 333 328 325 327 329 332 333 334 336 338 338 338 338 337 336 334
351 349 348 347 347 345 341 338 339 340 340 338 337 336 335 334 333 334 334 334 334 335 336 337 338 340 345 348 349 350 351 350 349 349 348 348 348 348 347 346 345 343 342 341 340 337 334 331 328 327 330 332 334 335 336 338 339 337 335 334 333 330 328
352 350 347 344 342 341 340 340 340 339 337 337 336 335 335 335 335 335 334 335 335 335 336 337 338 341 346 348 349 349 349 349 348 348 347 347 348 348 346 343 342 343 342 341 338 333 331 331 330 330 334 335 336 337 338 338 336 333 330 329 328 326 325
356 353 348 344 341 340 339 338 337 336 337 337 336 335 335 335 335 335 335 335 336 338 340 342 344 346 349 349 349 348 348 348 347 347 346 346 346 347 345 343 342 342 342 341 336 330 330 331 332 334 337 337 338 339 338 334 332 329 327 325 324 323 323
351 349 347 344 341 338 337 337 337 336 335 335 335 334 334 334 334 335 336 338 338 340 342 345 346 347 348 348 348 347 347 347 346 346 345 345 345 345 344 343 342 341 340 338 333 329 330 333 334 336 336 336 337 335 332 329 328 327 326 325 324 324 324
339 338 338 337 336 335 334 333 334 334 333 334 336 336 335 337 338 339 340 341 341 342 342 343 344 345 345 346 346 346 346 346 345 345 345 345 345 343 342 342 341 340 337 333 330 329 332 334 335 336 336 336 335 331 328 329 330 328 328 329 329 328 327
335 334 334 334 333 332 331 333 334 335 336 338 340 341 341 342 342 342 341 342 341 341 340 340 342 343 344 345 345 345 345 345 344 344 344 344 343 342 342 341 340 339 335 331 330 331 332 333 334 336 337 336 332 328 328 331 330 328 327 327 326 326 326
329 329 329 330 329 329 330 334 336 337 339 341 343 343 343 342 342 342 341 341 341 340 339 340 341 343 343 344 344 343 343 344 343 343 343 343 342 342 341 341 340 338 335 332 331 332 333 335 336 336 335 332 328 326 328 330 329 326 325 324 324 324 324
326 327 328 328 327 328 328 330 333 335 337 339 341 342 342 341 341 340 340 340 339 339 339 340 342 342 342 342 342 342 342 342 342 342 341 341 340 340 339 339 338 337 335 335 335 335 336 336 334 331 330 329 327 327 327 327 326 324 323 323 323 323 323
326 328 330 329 329 330 330 332 334 336 337 338 339 339 340 340 339 339 339 338 338 339 341 342 342 342 342 341 341 341 341 341 341 340 338 337 337 336 336 336 335 336 336 336 336 335 334 331 328 327 329 330 328 326 325 324 323 323 322 323 323 323 322

ECMWFFLT1_850_thetae_042.txt.gz
Theta_e
346 346 346 346 349 351 351 351 353 353 352 352 353 355 356 356 356 359 360 361 360 359 357 350 345 345 345 343 343 343 343 343 343 344 345 344 344 347 347 343 343 345 344 342 342 341 339 340 345 347 340 328 320 317 318 321 322 322 320 320 330 336 331
346 346 346 346 349 351 351 351 353 354 352 352 352 354 355 355 355 357 359 360 361 360 358 350 344 345 343 343 345 345 343 343 343 343 344 343 342 345 345 343 343 345 345 344 343 344 342 340 343 346 343 331 320 315 316 318 318 318 319 318 322 328 328
345 346 344 345 348 350 350 348 351 354 353 352 352 353 354 355 355 356 357 359 360 360 359 350 342 344 344 343 346 346 344 344 343 343 343 342 341 343 344 343 344 345 345 345 347 348 347 343 341 342 340 331 320 315 315 316 317 317 319 322 322 324 325
345 346 345 346 348 349 349 349 351 355 354 352 353 353 354 354 355 356 356 358 359 360 361 352 341 343 344 344 346 347 346 345 344 343 342 342 341 342 343 343 345 346 345 346 348 350 349 346 341 336 334 328 318 315 315 315 318 317 319 323 325 324 325
347 348 346 346 348 349 349 350 353 357 354 352 353 353 354 355 355 355 356 357 359 359 359 353 344 342 344 344 345 347 348 346 345 343 342 342 342 341 342 342 344 346 346 345 346 348 349 346 341 333 330 326 319 316 317 316 317 317 318 321 324 325 325
349 348 346 346 347 349 350 352 354 356 354 352 352 354 356 357 356 357 356 357 360 361 361 357 349 343 343 344 345 347 348 347 346 345 344 343 343 342 341 341 343 345 345 345 345 348 348 345 341 334 328 324 319 317 318 318 317 317 318 320 323 325 325
347 347 345 345 346 347 349 352 355 356 355 353 352 354 357 359 358 358 357 358 361 363 364 361 354 345 343 345 346 347 348 348 347 346 345 345 344 344 343 342 343 344 345 346 346 347 348 344 340 336 328 322 319 317 318 318 317 318 319 319 320 323 325
343 344 344 345 347 347 349 353 355 356 356 354 353 355 357 359 358 357 358 359 361 365 366 363 355 347 345 346 347 347 347 347 347 346 346 347 346 346 346 345 343 344 346 348 348 348 347 343 339 337 331 323 319 318 318 319 319 318 318 319 319 320 322
342 341 343 344 345 347 349 351 353 356 357 355 355 356 356 358 359 358 358 359 361 366 366 362 354 348 346 347 347 346 347 348 347 345 346 347 347 347 348 347 346 344 346 348 350 350 348 344 340 336 331 325 321 320 319 318 319 319 320 318 318 320 319
344 342 343 343 343 345 345 345 348 354 357 356 355 356 357 359 360 360 360 360 362 365 363 359 357 353 347 345 346 346 346 348 347 346 347 346 346 347 347 347 346 345 346 348 351 351 349 345 341 337 332 327 322 321 319 317 318 320 321 319 317 320 320
345 346 345 344 344 346 346 345 348 354 357 357 356 356 357 360 362 362 361 360 362 364 362 359 360 360 350 344 346 346 345 346 347 347 346 345 346 346 346 346 347 346 346 348 351 352 349 346 343 340 335 328 322 319 318 317 318 319 320 319 318 318 320
346 348 348 348 349 350 349 349 350 354 357 357 356 356 357 360 362 363 362 360 360 363 362 360 362 363 356 347 344 345 345 345 347 347 346 346 347 347 348 349 351 351 349 347 350 352 349 346 344 343 338 329 321 319 319 317 317 318 318 318 318 319 319
349 348 350 351 352 351 350 350 351 355 357 358 358 356 357 360 361 362 361 360 359 359 360 359 359 361 360 354 348 345 345 344 344 346 347 347 348 350 352 353 354 356 355 351 351 352 352 349 345 343 340 333 324 320 318 317 316 317 318 318 318 319 319
357 355 354 355 355 354 352 350 352 355 356 357 359 358 357 358 360 360 359 358 357 357 358 359 358 358 361 360 355 349 345 343 343 345 346 347 347 350 354 356 356 358 358 356 354 353 354 353 348 343 341 337 328 321 317 316 316 316 317 318 318 318 319
363 362 361 358 355 353 351 350 353 356 356 357 359 359 359 358 358 359 358 356 355 354 356 357 356 357 358 360 360 355 347 344 344 344 346 348 350 351 354 356 357 358 359 359 356 354 354 355 351 345 342 339 332 324 318 315 316 316 317 318 317 318 319
359 359 361 360 357 354 350 348 350 354 357 358 358 359 360 359 359 359 358 356 354 353 354 355 356 357 357 358 360 358 353 348 346 346 347 350 352 352 353 356 357 358 358 359 357 355 354 354 352 348 343 341 336 327 320 316 316 316 317 318 317 318 319
345 348 349 350 353 355 349 345 345 350 356 358 358 359 359 359 360 360 359 358 356 353 353 354 356 356 356 358 359 360 359 354 350 350 351 351 353 355 355 356 357 357 357 357 358 357 355 354 353 349 345 343 339 330 322 318 317 317 318 318 317 318 319
337 342 342 341 348 354 352 345 341 344 351 354 357 359 359 360 361 361 361 361 358 356 353 353 357 357 356 358 360 361 361 358 357 356 355 356 358 358 357 357 357 357 357 357 357 357 357 355 353 350 347 345 341 333 325 320 317 318 319 318 317 318 319
335 338 341 345 352 354 352 350 347 344 346 349 352 355 357 358 360 361 362 361 360 358 355 354 355 356 357 359 362 364 363 362 362 361 360 360 359 359 359 359 358 357 356 357 358 357 357 355 352 350 347 344 342 337 328 321 318 318 319 318 318 318 318
336 335 336 342 348 351 353 355 354 350 349 349 348 350 354 358 361 362 362 362 362 360 357 357 358 358 359 360 363 365 365 365 365 365 363 361 360 359 360 359 358 357 357 357 358 358 358 355 351 349 346 344 342 339 332 325 321 319 320 319 318 317 318
337 337 335 336 340 348 355 359 358 356 354 351 351 355 358 359 362 362 362 362 363 362 359 358 360 361 360 362 365 365 366 367 367 366 364 362 360 359 359 358 357 356 356 358 358 358 357 355 351 347 344 343 342 340 336 331 327 323 320 318 318 317 317
334 335 336 335 335 342 350 353 356 358 356 354 357 361 360 359 362 364 363 362 363 363 360 359 363 364 362 363 366 367 368 368 366 364 363 361 360 360 360 358 356 355 357 358 359 358 357 355 352 347 343 342 342 341 339 336 333 327 321 318 319 318 318
333 333 335 335 333 335 339 340 345 353 357 358 360 361 361 361 364 366 364 363 364 363 361 362 364 365 364 367 369 369 368 367 365 363 362 360 360 361 359 357 356 357 358 358 358 358 357 355 353 349 346 344 342 342 341 339 337 331 323 319 320 320 320
332 332 332 333 332 333 335 335 341 352 357 357 359 360 361 363 366 367 365 365 365 364 363 365 366 367 369 370 370 369 368 366 364 361 359 358 359 359 356 355 356 358 358 358 359 358 356 355 353 350 349 346 344 343 342 340 338 332 324 321 323 323 322
332 332 332 332 331 332 335 336 344 354 357 357 357 360 362 365 368 367 366 366 367 365 365 367 369 370 371 370 369 368 366 363 362 359 355 355 356 355 353 353 355 357 358 357 358 357 356 355 353 351 349 348 346 345 343 341 339 331 325 325 325 323 325
333 333 332 332 334 342 347 349 353 358 359 356 354 358 362 367 369 368 366 367 367 365 366 369 370 370 369 368 367 364 358 355 355 354 352 352 353 353 353 353 354 356 357 356 356 357 356 355 353 351 350 349 347 345 344 342 337 331 328 327 324 325 331
337 338 336 333 340 354 361 360 360 359 357 353 352 359 366 368 369 368 367 367 368 367 368 369 369 367 366 365 363 358 353 352 351 349 349 351 353 354 353 353 353 355 357 356 356 356 355 354 353 351 349 347 345 343 342 340 336 333 331 325 323 330 336
337 337 338 336 341 353 361 362 360 356 355 355 356 362 368 368 368 368 367 368 369 369 369 368 367 364 364 363 360 357 355 352 349 348 351 353 354 353 353 353 354 355 356 356 356 355 354 354 353 350 348 345 342 340 340 339 338 336 331 325 325 333 337
343 343 348 352 355 357 360 360 359 357 358 359 361 366 368 368 368 367 368 368 369 370 370 369 366 363 361 359 355 352 349 346 344 346 349 351 352 352 353 354 354 354 355 355 354 353 352 351 350 348 347 345 342 339 337 336 336 334 329 328 332 336 336
353 352 355 361 363 363 363 361 359 360 362 363 365 367 367 367 367 367 367 369 370 370 369 365 361 358 356 353 346 341 341 344 344 343 345 348 349 350 352 353 353 354 354 354 354 352 351 349 348 346 345 343 341 338 336 335 335 334 333 334 335 334 331
358 357 357 363 366 365 365 364 362 363 365 366 367 367 367 367 367 367 368 368 368 367 363 356 351 349 347 344 342 340 344 346 345 345 347 349 349 349 351 352 354 353 352 352 352 351 349 349 347 345 344 342 339 337 337 337 336 335 336 335 333 331 328
358 359 358 360 363 363 365 366 366 366 367 367 367 367 368 367 366 368 368 366 363 358 351 343 340 340 341 343 344 345 346 347 347 348 350 351 350 350 351 351 352 352 351 351 350 349 348 348 347 346 344 341 338 337 337 337 335 334 334 334 332 330 328
356 358 357 356 358 361 363 365 367 367 367 368 368 368 367 366 365 363 360 357 352 344 338 335 335 338 343 346 347 347 348 348 348 350 352 352 351 350 351 351 350 349 350 350 348 348 348 347 347 346 343 341 339 337 336 336 335 334 334 332 330 327 325
355 357 357 358 359 360 361 363 364 365 366 367 367 366 363 362 361 356 353 354 352 344 338 338 340 342 345 346 346 347 349 350 351 351 351 351 350 350 350 350 349 348 348 348 347 348 347 347 347 346 343 341 339 338 336 335 335 334 331 328 328 327 326
356 357 358 360 360 358 359 360 360 361 363 363 363 363 362 361 361 359 358 359 355 348 343 343 344 343 345 347 349 351 352 352 352 351 350 349 348 348 347 347 348 348 347 347 347 347 347 346 345 344 342 341 340 337 336 336 334 331 329 329 331 331 329
354 355 356 356 354 353 356 357 355 356 357 357 357 358 357 357 358 357 354 352 348 343 340 341 343 344 346 349 351 351 351 351 351 350 349 348 347 347 347 347 347 346 347 347 346 346 345 344 342 341 340 340 339 337 336 335 334 333 332 333 334 332 329
352 354 355 354 351 352 355 355 354 354 353 352 350 349 350 353 353 350 344 341 341 340 339 340 344 347 350 350 349 349 349 349 348 348 348 347 346 346 345 346 346 345 346 345 344 344 344 342 339 338 338 338 338 337 335 334 335 335 334 333 332 330 329
348 351 355 355 354 354 355 355 354 354 353 352 351 351 353 354 352 346 342 340 340 341 343 347 350 350 350 349 347 347 348 348 347 347 347 346 346 345 344 344 344 344 344 343 342 343 342 339 337 337 336 336 337 337 336 335 335 334 333 332 331 331 332

ECMWFFLT1_850_thetae_045.txt.gz
Theta_e
347 347 347 347 348 348 349 349 349 349 349 349 350 351 353 353 354 354 354 354 354 354 354 353 352 351 348 345 342 340 339 337 338 340 342 344 345 346 346 346 348 348 345 343 342 342 341 341 342 342 340 339 331 319 315 317 318 318 321 326 332 332 330
346 346 347 348 348 349 349 349 349 350 350 350 350 351 353 354 354 355 355 355 355 354 354 354 353 352 350 347 344 342 339 336 337 341 342 343 344 346 346 344 345 346 344 342 341 341 342 341 343 342 339 338 332 320 315 316 316 317 319 323 327 327 327
346 346 347 349 350 348 348 349 349 350 351 351 351 351 352 353 354 355 355 355 355 355 355 354 354 353 351 349 347 343 339 337 337 340 343 343 343 345 346 345 344 344 343 342 342 342 343 342 342 341 339 337 332 321 315 316 317 317 317 318 320 321 322
346 347 348 348 350 349 349 350 350 351 352 351 352 352 352 353 354 355 355 355 356 356 356 356 355 355 353 352 349 344 340 338 337 340 342 342 342 344 345 346 344 344 344 342 342 343 343 343 342 341 340 337 331 322 316 316 316 317 317 317 317 318 319
347 348 349 349 349 349 349 350 350 352 352 352 353 352 353 354 354 355 356 356 356 356 356 356 357 357 355 353 350 344 339 338 339 340 340 341 342 343 345 345 344 344 344 343 342 343 344 344 343 342 341 339 334 326 318 315 316 316 317 317 317 318 318
348 348 348 348 348 348 348 349 350 351 352 352 353 353 353 354 354 355 356 356 357 357 356 357 358 358 357 354 351 345 340 338 339 340 340 340 341 342 344 344 343 343 343 343 342 343 344 344 344 343 342 341 338 330 319 315 317 316 317 318 317 317 317
347 347 347 346 346 347 346 348 349 350 352 352 353 354 354 354 355 355 356 356 357 358 358 358 358 358 357 354 351 347 341 338 339 340 340 340 340 342 343 343 343 342 342 342 342 343 344 344 344 342 342 341 340 334 324 317 316 316 317 318 317 317 317
346 346 345 346 345 346 346 348 350 350 352 352 352 353 353 354 355 355 355 356 356 357 358 358 358 358 357 355 351 347 342 339 339 341 341 342 342 342 342 343 343 342 342 342 342 343 344 344 344 343 341 341 340 338 330 320 316 316 317 317 317 318 318
345 345 345 346 345 346 346 348 350 351 351 352 352 353 353 353 354 354 355 356 355 356 358 358 359 358 357 356 351 347 344 341 340 341 342 343 343 343 342 342 342 342 342 342 342 344 344 345 344 342 341 340 339 339 335 324 317 316 317 316 317 318 318
345 345 345 346 345 346 346 347 350 350 351 352 352 353 354 353 354 354 354 354 355 355 356 358 359 359 359 358 353 349 348 345 342 342 342 343 343 343 342 341 342 342 342 342 342 344 344 345 345 343 341 341 339 339 338 329 319 316 317 317 317 319 319
345 345 346 346 345 346 347 348 350 349 349 351 352 353 354 353 353 353 354 354 354 355 357 358 359 359 359 359 356 353 350 347 345 344 343 343 343 343 343 342 342 342 343 343 342 343 344 345 345 344 342 341 340 340 340 333 323 317 317 317 318 320 319
345 345 346 346 346 347 348 349 349 349 351 352 354 354 353 353 354 353 354 354 354 355 357 358 359 360 359 359 358 355 351 349 348 346 345 343 343 343 343 344 343 344 344 344 344 343 343 343 343 343 341 341 341 341 341 337 328 319 317 317 318 320 320
345 346 346 346 347 347 347 348 348 349 350 353 354 355 354 353 353 354 354 354 354 355 357 358 359 360 360 360 359 357 353 350 347 347 346 346 344 343 344 345 345 346 345 345 345 345 344 343 343 343 342 342 342 342 342 340 332 323 320 318 318 320 321
345 346 347 347 347 347 347 349 350 351 352 354 355 354 354 354 353 354 354 354 355 355 356 358 359 361 362 362 361 359 354 349 347 347 347 347 345 345 346 347 347 347 347 346 347 347 346 346 344 344 345 345 344 344 344 342 336 328 322 318 318 320 321
347 347 347 347 346 346 347 348 350 352 353 355 356 355 355 354 353 354 354 355 356 356 356 357 358 361 364 363 362 360 355 350 348 348 347 348 348 347 347 348 349 350 349 349 348 348 348 348 348 348 347 347 347 347 346 344 339 332 325 320 318 320 322
348 347 345 346 345 343 343 342 343 345 348 351 354 355 356 355 355 355 355 355 356 356 356 357 358 361 363 364 363 361 358 354 350 349 348 348 348 347 347 348 350 351 352 351 350 350 350 350 350 351 350 349 349 348 348 346 342 336 330 323 319 319 322
351 351 349 347 344 342 341 340 342 343 344 346 348 352 354 356 356 356 355 356 356 357 357 357 358 360 362 364 364 362 361 358 353 351 349 347 347 347 348 350 352 354 354 354 353 353 353 352 352 351 352 352 351 350 350 348 344 340 334 327 320 318 319
355 353 352 352 349 345 342 343 346 347 347 347 347 350 352 355 356 356 356 357 357 358 358 358 359 360 361 362 363 363 362 360 357 354 350 349 349 348 350 352 354 356 356 356 355 355 356 355 354 353 353 353 353 353 352 350 346 343 338 331 322 317 318
356 350 350 353 353 351 348 347 348 349 348 349 350 351 352 354 356 357 357 357 357 359 360 360 360 360 360 361 362 362 361 360 360 357 354 352 351 352 353 354 356 358 357 357 357 357 358 358 357 356 355 355 355 354 352 351 348 344 341 334 324 318 316
348 345 343 345 348 351 351 351 350 350 348 347 349 348 350 353 354 354 356 357 358 360 361 360 360 360 360 360 361 360 360 360 361 360 357 355 354 355 356 356 358 358 358 358 358 358 359 359 359 358 357 356 356 354 353 351 349 346 342 336 327 318 316
339 339 338 339 340 343 347 349 349 347 345 344 344 344 348 353 354 353 355 358 359 360 360 360 359 359 359 359 360 360 360 360 361 361 360 359 357 357 357 358 359 359 359 359 359 359 360 360 360 359 358 357 356 355 354 352 350 347 343 338 331 321 318
334 334 337 340 340 339 344 346 346 344 342 341 341 342 347 351 352 354 357 358 359 359 359 359 358 357 357 358 359 359 360 361 362 362 362 361 359 359 359 360 360 360 360 360 359 360 360 360 360 359 358 358 356 355 354 352 350 347 342 339 333 324 320
331 332 332 334 337 340 343 343 342 340 341 343 343 343 344 346 348 354 358 359 360 360 359 358 357 356 355 356 358 359 360 361 362 363 363 362 361 361 361 361 362 361 361 360 360 360 360 359 360 359 359 358 356 355 353 350 348 346 342 339 335 330 328
330 330 330 330 331 334 338 342 343 342 341 344 345 344 344 344 346 351 354 358 361 361 360 359 358 356 355 355 357 359 360 362 363 363 363 363 363 363 363 362 362 361 360 360 359 359 359 358 358 358 358 358 356 355 352 349 348 345 343 341 338 336 334
332 330 331 331 330 330 331 336 339 342 345 346 347 347 347 345 345 348 351 354 359 361 361 361 359 357 356 356 358 360 362 363 364 364 364 364 364 364 363 362 361 360 359 358 358 358 358 357 357 358 358 358 356 354 351 348 347 344 343 342 339 339 335
340 337 334 334 335 335 333 333 334 339 345 347 346 346 347 347 349 349 348 351 357 362 362 361 361 360 359 359 361 363 364 365 365 365 365 365 365 364 362 361 361 360 359 357 357 358 358 358 358 358 358 357 355 353 350 349 346 344 343 342 341 341 335
346 342 336 334 336 337 337 335 332 333 340 346 347 346 345 348 352 352 350 352 358 362 363 362 362 362 362 364 365 366 367 367 366 366 366 365 363 362 361 361 359 359 358 357 356 357 358 358 359 358 358 357 355 353 352 349 346 345 343 343 343 339 331
351 350 344 337 333 336 343 347 340 332 332 337 343 346 346 349 356 356 354 355 359 362 363 363 364 364 366 367 368 368 368 367 366 367 366 364 364 362 360 357 355 354 354 355 356 357 357 358 358 358 357 355 354 353 351 348 346 345 344 344 342 336 327
355 358 356 347 336 338 353 363 360 354 351 350 351 354 357 360 363 361 358 359 362 363 364 365 366 367 368 369 369 368 368 367 366 366 364 364 363 360 355 352 351 351 352 354 357 357 357 357 357 357 356 355 353 352 350 348 347 345 343 343 341 334 326
355 359 361 359 352 348 357 368 369 367 367 368 366 366 366 365 364 361 361 363 364 364 365 367 369 369 370 370 369 368 367 366 365 364 363 362 359 354 351 350 351 352 354 355 356 356 356 356 356 356 355 354 353 351 349 347 345 343 341 341 339 332 326
352 356 360 363 363 360 361 366 369 367 367 368 367 367 368 368 366 365 366 367 366 365 367 370 371 371 371 370 369 368 366 364 361 359 358 356 353 351 351 352 353 354 355 356 356 356 356 356 355 354 354 353 352 351 347 345 343 341 339 338 338 334 330
351 353 356 358 362 364 362 363 363 361 359 358 357 361 367 370 369 368 368 368 367 368 369 371 372 371 370 369 367 365 361 358 355 355 355 354 353 353 354 354 354 355 355 356 355 355 354 354 353 353 352 351 350 349 346 344 342 340 337 336 335 334 332
353 354 355 356 359 361 360 359 357 353 351 350 352 361 368 369 368 369 369 369 369 370 371 371 370 369 367 365 362 360 358 355 354 355 354 354 354 354 354 354 354 354 355 355 354 354 354 353 352 351 349 349 348 346 345 344 341 339 336 334 333 331 331
351 353 354 355 356 358 359 358 355 354 354 355 359 366 369 368 368 370 371 370 370 370 369 368 366 366 364 361 359 358 357 355 354 355 354 354 354 354 354 354 354 354 354 353 353 353 352 351 350 349 348 347 347 345 344 343 340 338 336 335 334 332 332
352 352 353 355 356 356 359 360 360 362 364 364 364 366 368 367 366 366 366 366 366 366 365 364 363 363 361 358 357 355 353 353 353 353 352 352 352 353 353 353 353 352 351 350 351 351 350 349 348 348 347 347 346 345 344 342 340 338 337 336 334 333 332
350 351 351 353 354 355 357 360 362 362 361 361 363 363 361 361 361 360 361 362 363 363 363 362 360 359 357 356 355 353 352 352 352 351 350 350 351 351 352 352 351 350 349 348 348 348 348 348 347 347 347 347 346 345 343 341 339 338 336 335 334 333 332
347 348 349 349 350 351 351 353 357 357 355 355 357 356 353 354 355 356 357 358 360 361 361 359 357 356 355 354 353 352 352 351 351 351 351 350 350 349 348 348 348 348 348 347 347 347 347 346 346 346 346 344 344 343 342 340 338 337 335 334 332 331 332
343 346 348 347 348 346 345 347 351 351 350 350 350 350 352 354 355 355 356 357 358 359 358 356 354 354 353 353 353 352 351 351 351 350 349 348 347 346 345 345 346 346 347 347 346 346 346 345 344 344 343 340 340 341 340 338 337 336 335 332 331 332 333

ECMWFFLT1_850_thetae_048.txt.gz
Theta_e
343 342 342 343 344 344 345 345 346 346 346 347 347 347 348 348 348 348 348 348 349 349 349 350 350 350 350 348 346 343 340 337 335 336 337 339 340 341 342 343 344 345 345 344 344 342 340 342 345 345 342 340 339 339 332 322 317 316 318 320 319 322 324
343 343 342 343 343 343 344 345 346 346 346 346 347 347 348 348 348 349 349 349 349 349 349 350 350 350 350 349 347 344 341 338 336 336 336 337 338 340 341 342 343 344 345 344 343 342 341 341 343 343 342 340 339 338 334 324 317 316 318 319 319 320 322
344 344 343 343 343 343 344 345 345 345 346 346 347 347 348 348 348 349 349 349 350 350 350 350 350 350 349 349 349 346 343 339 338 337 337 337 338 338 340 341 343 344 345 345 343 343 342 342 342 341 341 340 339 338 336 329 320 316 317 318 318 319 320
343 345 345 343 345 344 344 345 344 345 346 346 346 347 347 348 348 349 349 349 350 350 351 351 351 351 349 350 350 348 346 342 340 338 337 337 337 338 339 341 342 345 345 345 344 343 343 343 342 342 341 340 340 338 337 334 324 317 317 318 318 319 319
344 345 345 345 346 345 345 345 344 345 345 346 346 346 347 348 349 350 350 350 350 349 350 351 351 351 351 350 351 350 348 345 341 340 339 338 338 338 339 340 341 344 345 345 345 344 344 344 343 343 342 340 340 339 338 336 326 317 316 317 318 319 319
344 344 345 345 346 346 346 346 345 346 346 346 346 346 347 348 349 350 350 350 351 351 351 351 351 352 352 351 351 351 350 348 345 343 342 341 340 339 339 340 341 342 343 344 345 345 345 344 343 342 342 341 340 340 339 337 328 319 316 317 317 318 318
344 345 345 345 346 346 346 346 346 346 346 346 346 347 348 349 349 350 351 351 352 352 352 352 352 352 352 352 352 352 351 350 348 346 345 343 342 341 339 340 341 341 342 343 344 344 344 344 343 342 342 342 341 340 340 338 333 323 317 316 317 317 318
344 345 345 345 346 346 346 347 347 347 347 347 348 348 349 349 350 350 351 351 352 352 353 353 352 352 353 353 352 352 352 351 350 348 347 346 344 343 340 340 341 342 342 342 342 343 343 342 342 342 342 343 342 341 340 340 338 329 319 316 316 317 317
344 344 344 345 346 346 347 347 347 347 348 348 348 349 349 349 350 350 351 351 352 353 353 353 353 352 353 353 353 353 352 352 352 351 350 348 346 344 341 340 341 342 342 342 342 342 342 342 342 342 343 343 342 342 341 340 341 335 325 317 316 317 317
345 344 345 346 345 346 347 346 348 348 348 349 349 349 350 349 350 350 351 352 352 353 353 353 353 353 353 354 353 353 353 353 353 352 352 350 347 344 342 340 341 341 341 342 342 342 342 341 342 342 343 343 343 343 342 341 342 340 332 324 318 316 317
345 345 345 346 345 346 347 346 349 348 349 350 349 350 350 350 351 351 351 353 352 353 354 353 354 354 354 354 354 354 354 353 353 353 352 351 347 345 342 341 342 341 341 341 342 342 342 341 342 343 343 344 343 343 343 342 341 341 338 332 322 317 317
344 345 345 346 345 345 346 347 349 349 349 350 350 351 351 350 351 351 352 353 353 354 354 354 354 355 355 355 355 355 355 354 353 352 351 350 347 343 342 342 342 340 340 341 341 342 342 342 342 342 343 344 345 344 344 342 341 340 341 337 328 319 316
345 344 344 346 345 345 346 347 348 349 350 350 350 351 351 351 351 351 352 353 354 355 355 355 355 355 356 356 356 356 354 353 352 351 349 348 344 342 341 342 341 341 341 341 341 342 341 342 341 341 343 345 346 346 345 343 342 341 341 340 335 325 318
344 343 344 346 345 345 345 345 347 349 349 350 351 351 351 351 351 351 352 352 354 355 355 355 356 356 357 357 357 356 355 353 352 349 348 346 343 341 341 342 341 342 342 343 342 341 341 340 341 342 345 347 347 347 346 345 344 343 343 342 340 332 321
343 343 344 344 344 345 345 345 346 347 348 349 350 350 351 351 351 352 352 352 353 354 355 356 356 356 357 357 357 356 355 354 352 351 349 348 345 342 342 342 342 342 343 343 343 342 341 341 341 343 345 347 348 348 347 346 344 344 344 343 343 339 328
342 343 343 344 344 344 344 345 345 345 347 348 348 350 350 351 351 352 351 352 353 353 355 355 356 356 356 356 356 355 356 355 354 353 352 351 349 345 343 343 343 343 343 343 343 342 342 343 344 345 345 346 348 348 347 347 345 344 345 345 345 343 334
342 343 343 343 343 344 344 345 345 344 346 347 347 349 349 350 350 351 351 352 352 353 354 355 355 356 356 356 356 356 357 356 355 355 354 353 351 348 346 346 346 345 344 343 343 343 344 346 346 347 347 348 348 348 348 347 345 345 347 348 347 345 339
342 342 343 344 343 344 345 345 345 345 345 346 346 347 348 348 349 350 351 351 351 352 354 354 355 355 354 355 356 357 357 355 355 356 355 354 353 351 350 349 349 349 347 345 345 344 345 347 348 348 349 350 350 350 349 348 347 348 349 349 348 346 345
344 343 343 344 344 345 345 345 345 345 345 345 345 345 346 347 348 349 349 349 350 352 354 354 354 354 354 355 356 357 356 355 356 356 355 354 354 353 354 353 353 352 350 347 345 346 348 348 349 350 350 351 351 350 350 350 349 350 351 350 348 347 347
343 345 344 343 344 344 345 345 345 344 343 342 342 342 344 346 347 347 348 350 352 353 353 354 354 354 354 355 356 357 356 356 356 356 355 355 355 356 356 355 355 354 352 350 349 349 350 350 350 350 351 351 351 351 351 351 351 352 352 351 351 349 347
344 344 343 344 346 345 345 345 344 344 342 340 340 341 343 347 348 348 349 352 353 354 354 354 354 354 355 355 356 357 357 356 356 356 357 357 357 357 357 355 355 355 354 354 353 351 351 350 351 351 351 352 352 352 353 353 353 354 354 352 353 351 346
348 347 345 345 345 344 345 345 343 341 340 341 341 341 343 344 346 348 351 353 354 354 354 354 354 354 355 355 356 357 357 357 356 357 358 359 359 358 357 356 355 355 354 355 354 353 353 353 352 352 352 353 354 354 354 355 355 355 354 354 354 350 346
343 345 347 349 347 346 346 345 343 342 341 343 342 340 342 343 344 346 350 352 354 354 354 355 355 355 355 356 356 357 357 357 357 357 359 360 360 360 358 358 356 355 354 354 354 354 354 354 354 354 355 355 355 355 356 356 357 356 356 356 355 352 348
340 338 339 342 344 345 345 343 342 342 342 343 342 340 342 344 344 345 347 350 353 354 354 355 355 355 355 356 356 357 358 358 358 358 359 361 361 360 359 358 357 355 354 353 353 353 353 354 355 356 357 357 357 357 357 358 358 358 357 357 356 354 352
345 344 341 340 339 339 340 340 341 341 343 344 343 342 343 346 347 348 348 350 352 353 355 356 355 355 355 355 356 357 358 359 359 359 360 361 361 360 360 359 357 356 354 354 353 353 353 355 357 358 358 359 359 359 359 359 359 359 358 357 356 354 352
350 348 347 346 342 338 337 337 337 339 344 345 345 345 346 346 350 352 352 351 352 354 355 354 353 353 354 355 356 357 358 359 360 360 360 360 361 360 360 359 358 357 356 356 355 355 356 357 358 359 359 359 359 360 360 360 360 359 357 356 355 353 350
356 353 351 350 347 343 340 337 335 336 339 341 344 348 350 351 352 352 350 351 354 354 352 350 350 352 354 356 358 358 359 360 360 361 361 361 360 361 360 360 359 359 358 357 357 357 358 358 359 360 360 360 360 360 360 359 359 357 356 355 354 351 347
356 357 356 354 353 349 343 338 337 336 337 339 339 341 346 351 354 353 351 352 352 348 343 345 349 353 355 357 358 359 359 360 360 361 362 362 361 361 361 361 360 360 359 358 358 359 359 360 360 361 360 360 360 360 359 358 357 356 356 355 352 348 345
350 355 358 359 359 358 355 352 348 343 340 340 341 341 341 344 350 354 357 358 354 349 348 349 352 355 356 358 359 359 359 359 360 362 363 363 362 361 361 362 361 361 361 360 360 361 361 361 362 361 361 360 359 358 357 356 356 356 356 353 349 346 344
344 349 354 359 361 361 361 363 363 357 349 344 344 346 344 343 347 352 356 359 358 358 359 359 358 359 359 359 359 358 358 359 360 362 363 363 362 362 362 362 362 362 361 361 361 362 362 362 362 361 361 360 358 358 357 357 357 357 354 351 348 346 344
345 345 349 354 360 362 362 362 365 365 362 357 354 353 352 350 351 353 355 356 358 360 363 363 362 361 361 360 359 359 359 360 362 363 364 363 362 362 363 363 362 362 362 362 363 363 362 362 362 360 360 359 358 358 358 356 356 354 351 348 346 345 344
348 348 348 349 355 359 360 361 362 362 363 364 364 365 363 361 360 360 361 360 360 361 362 362 363 363 362 362 362 361 362 363 365 366 365 363 362 363 363 363 363 362 363 363 363 362 362 360 359 359 358 357 358 358 356 354 353 351 349 347 346 344 342
350 350 349 350 351 353 355 359 360 359 359 360 362 365 367 367 367 367 366 365 365 364 364 363 363 364 364 365 365 365 366 366 366 367 366 365 365 365 364 364 364 363 363 362 360 359 359 358 357 357 356 356 356 355 354 353 351 350 348 347 344 341 339
350 351 351 352 353 353 354 356 357 357 357 357 358 360 362 365 367 367 367 366 365 364 365 365 365 366 367 368 367 367 367 367 367 367 367 366 366 366 365 365 363 362 359 356 354 355 355 355 355 355 354 354 354 353 353 351 350 349 347 345 342 339 338
348 349 350 351 352 353 354 356 357 357 358 357 356 357 357 360 362 364 365 364 364 365 365 366 368 367 366 366 366 363 363 365 368 368 367 366 365 364 363 361 358 356 354 352 352 353 354 354 354 354 354 353 352 352 351 350 349 347 345 343 341 338 336
345 346 347 348 349 350 352 354 356 357 357 357 356 356 356 358 360 361 361 360 361 363 363 365 366 362 356 356 358 356 356 360 363 364 364 364 363 361 358 356 354 353 352 353 353 353 353 352 352 352 352 351 349 349 348 347 346 345 343 341 339 337 335
344 344 345 345 346 347 348 349 351 354 356 357 357 357 357 357 358 360 361 362 363 365 365 365 363 356 350 349 350 350 352 355 358 359 360 359 358 357 354 353 353 353 352 353 353 353 352 352 351 350 348 347 347 346 346 345 344 343 342 341 338 336 334
344 344 345 345 345 346 346 346 347 348 350 351 353 353 353 354 354 354 355 358 362 363 361 359 356 351 346 344 343 346 350 353 354 355 356 355 354 354 353 352 353 353 353 353 352 351 350 349 348 347 346 345 345 345 345 345 343 341 340 339 337 336 335